Observation data for Kent I10-I20 Split on 11/16/2019      Previous  Date       Current Mesonet Observations  Soil Data  Daily Summary Page  Observations in Plain Language
KKE1 160600Z 21004KT 05/M02 A3019 RMK A01 T00481022  RH  061%=      5-min Rain = 0
KKE1 160601Z 21004KT 05/M02 A3019 RMK A01 T00481022  RH  060%=      5-min Rain = 0
KKE1 160602Z 21004KT 05/M02 A3019 RMK A01 T00491022  RH  060%=      5-min Rain = 0
KKE1 160603Z 21004KT 05/M02 A3019 RMK A01 T00491022  RH  060%=      5-min Rain = 0
KKE1 160604Z 21004KT 05/M02 A3019 RMK A01 T00491022  RH  060%=      5-min Rain = 0
KKE1 160605Z 21004KT 05/M02 A3019 RMK A01 T00491022  RH  060%=      5-min Rain = 0
KKE1 160606Z 21005KT 05/M02 A3019 RMK A01 T00491022  RH  060%=      5-min Rain = 0
KKE1 160607Z 21005KT 05/M02 A3019 RMK A01 T00491023  RH  060%=      5-min Rain = 0
KKE1 160608Z 22005KT 05/M02 A3019 RMK A01 T00481023  RH  060%=      5-min Rain = 0
KKE1 160609Z 22005KT 05/M02 A3019 RMK A01 T00481023  RH  060%=      5-min Rain = 0
KKE1 160610Z 21005KT 05/M02 A3019 RMK A01 T00481023  RH  060%=      5-min Rain = 0
KKE1 160611Z 22005KT 05/M02 A3019 RMK A01 T00491023  RH  060%=      5-min Rain = 0
KKE1 160612Z 21005KT 05/M02 A3019 RMK A01 T00491023  RH  060%=      5-min Rain = 0
KKE1 160613Z 21005KT 05/M02 A3019 RMK A01 T00491023  RH  060%=      5-min Rain = 0
KKE1 160614Z 21005KT 05/M02 A3019 RMK A01 T00481023  RH  060%=      5-min Rain = 0
KKE1 160615Z 21005KT 05/M02 A3019 RMK A01 T00471023  RH  061%=      5-min Rain = 0
KKE1 160616Z 21005KT 05/M02 A3019 RMK A01 T00471022  RH  061%=      5-min Rain = 0
KKE1 160617Z 21005KT 05/M02 A3019 RMK A01 T00471022  RH  061%=      5-min Rain = 0
KKE1 160618Z 22005KT 05/M02 A3019 RMK A01 T00511021  RH  060%=      5-min Rain = 0
KKE1 160619Z 22005KT 05/M02 A3019 RMK A01 T00541020  RH  059%=      5-min Rain = 0
KKE1 160620Z 22006KT 06/M02 A3019 RMK A01 T00551021  RH  058%=      5-min Rain = 0
KKE1 160621Z 22006KT 06/M02 A3019 RMK A01 T00561021  RH  058%=      5-min Rain = 0
KKE1 160622Z 22006KT 06/M02 A3019 RMK A01 T00561022  RH  057%=      5-min Rain = 0
KKE1 160623Z 22006KT 06/M02 A3019 RMK A01 T00561022  RH  057%=      5-min Rain = 0
KKE1 160624Z 22005KT 06/M02 A3019 RMK A01 T00561022  RH  058%=      5-min Rain = 0
KKE1 160625Z 21005KT 06/M02 A3019 RMK A01 T00551021  RH  058%=      5-min Rain = 0
KKE1 160626Z 21005KT 06/M02 A3019 RMK A01 T00551021  RH  058%=      5-min Rain = 0
KKE1 160627Z 21005KT 05/M02 A3019 RMK A01 T00541021  RH  058%=      5-min Rain = 0
KKE1 160628Z 22006KT 05/M02 A3019 RMK A01 T00531021  RH  059%=      5-min Rain = 0
KKE1 160629Z 22006KT 05/M02 A3019 RMK A01 T00541020  RH  059%=      5-min Rain = 0
KKE1 160630Z 23005KT 06/M02 A3019 RMK A01 T00571018  RH  058%=      5-min Rain = 0
KKE1 160631Z 22006KT 06/M02 A3019 RMK A01 T00611018  RH  057%=      5-min Rain = 0
KKE1 160632Z 22006KT 06/M02 A3019 RMK A01 T00621018  RH  057%=      5-min Rain = 0
KKE1 160633Z 22005KT 06/M02 A3019 RMK A01 T00621018  RH  056%=      5-min Rain = 0
KKE1 160634Z 23004KT 06/M02 A3019 RMK A01 T00621019  RH  056%=      5-min Rain = 0
KKE1 160635Z 23004KT 06/M02 A3019 RMK A01 T00611019  RH  057%=      5-min Rain = 0
KKE1 160636Z 23004KT 06/M02 A3019 RMK A01 T00611019  RH  057%=      5-min Rain = 0
KKE1 160637Z 23004KT 06/M02 A3019 RMK A01 T00611019  RH  057%=      5-min Rain = 0
KKE1 160638Z 24005KT 06/M02 A3019 RMK A01 T00611018  RH  057%=      5-min Rain = 0
KKE1 160639Z 24005KT 06/M02 A3019 RMK A01 T00641018  RH  056%=      5-min Rain = 0
KKE1 160640Z 24004KT 07/M02 A3019 RMK A01 T00671018  RH  055%=      5-min Rain = 0
KKE1 160641Z 24004KT 07/M02 A3019 RMK A01 T00681018  RH  054%=      5-min Rain = 0
KKE1 160642Z 24004KT 07/M02 A3019 RMK A01 T00691019  RH  054%=      5-min Rain = 0
KKE1 160643Z 24004KT 07/M02 A3019 RMK A01 T00691019  RH  053%=      5-min Rain = 0
KKE1 160644Z 24004KT 07/M02 A3019 RMK A01 T00701019  RH  053%=      5-min Rain = 0
KKE1 160645Z 24003KT 07/M02 A3018 RMK A01 T00711020  RH  053%=      5-min Rain = 0
KKE1 160646Z 24003KT 07/M02 A3018 RMK A01 T00711020  RH  052%=      5-min Rain = 0
KKE1 160647Z 24004KT 07/M02 A3018 RMK A01 T00711020  RH  052%=      5-min Rain = 0
KKE1 160648Z 24004KT 07/M02 A3018 RMK A01 T00711019  RH  052%=      5-min Rain = 0
KKE1 160649Z 24004KT 07/M02 A3018 RMK A01 T00711020  RH  052%=      5-min Rain = 0
KKE1 160650Z 24004KT 07/M02 A3018 RMK A01 T00711020  RH  052%=      5-min Rain = 0
KKE1 160651Z 23005KT 07/M02 A3018 RMK A01 T00711020  RH  052%=      5-min Rain = 0
KKE1 160652Z 23004KT 07/M02 A3018 RMK A01 T00721020  RH  052%=      5-min Rain = 0
KKE1 160653Z 23006KT 07/M02 A3018 RMK A01 T00721019  RH  052%=      5-min Rain = 0
KKE1 160654Z 24006KT 07/M02 A3018 RMK A01 T00721019  RH  052%=      5-min Rain = 0
KKE1 160655Z 24007KT 07/M02 A3018 RMK A01 T00721019  RH  052%=      5-min Rain = 0
KKE1 160656Z 24008KT 07/M02 A3018 RMK A01 T00731019  RH  052%=      5-min Rain = 0
KKE1 160657Z 24007KT 07/M02 A3018 RMK A01 T00741018  RH  052%=      5-min Rain = 0
KKE1 160658Z 24007KT 07/M02 A3018 RMK A01 T00741018  RH  052%=      5-min Rain = 0
KKE1 160659Z 25007KT 07/M02 A3018 RMK A01 T00741018  RH  052%=      5-min Rain = 0
KKE1 160700Z 24007KT 07/M02 A3018 RMK A01 T00731018  RH  052%=      5-min Rain = 0
KKE1 160701Z 25008KT 07/M02 A3018 RMK A01 T00731018  RH  052%=      5-min Rain = 0
KKE1 160702Z 24008KT 07/M02 A3018 RMK A01 T00721018  RH  053%=      5-min Rain = 0
KKE1 160703Z 24009KT 07/M02 A3018 RMK A01 T00721018  RH  053%=      5-min Rain = 0
KKE1 160704Z 25008KT 07/M02 A3018 RMK A01 T00721018  RH  053%=      5-min Rain = 0
KKE1 160705Z 25007KT 07/M02 A3018 RMK A01 T00721018  RH  053%=      5-min Rain = 0
KKE1 160706Z 24008KT 07/M02 A3018 RMK A01 T00721018  RH  053%=      5-min Rain = 0
KKE1 160707Z 24007KT 07/M02 A3017 RMK A01 T00721018  RH  053%=      5-min Rain = 0
KKE1 160708Z 24006KT 07/M02 A3017 RMK A01 T00711019  RH  053%=      5-min Rain = 0
KKE1 160709Z 23008KT 07/M02 A3017 RMK A01 T00701019  RH  053%=      5-min Rain = 0
KKE1 160710Z 24008KT 07/M02 A3017 RMK A01 T00691019  RH  053%=      5-min Rain = 0
KKE1 160711Z 23010KT 07/M02 A3017 RMK A01 T00691019  RH  054%=      5-min Rain = 0
KKE1 160712Z 23010KT 07/M02 A3017 RMK A01 T00711019  RH  053%=      5-min Rain = 0
KKE1 160713Z 23010KT 07/M02 A3017 RMK A01 T00731019  RH  052%=      5-min Rain = 0
KKE1 160714Z 23009KT 07/M02 A3017 RMK A01 T00731019  RH  052%=      5-min Rain = 0
KKE1 160715Z 22008KT 07/M02 A3017 RMK A01 T00741019  RH  052%=      5-min Rain = 0
KKE1 160716Z 23008KT 07/M02 A3017 RMK A01 T00731019  RH  052%=      5-min Rain = 0
KKE1 160717Z 22009KT 07/M02 A3017 RMK A01 T00731020  RH  052%=      5-min Rain = 0
KKE1 160718Z 22008KT 07/M02 A3017 RMK A01 T00731020  RH  052%=      5-min Rain = 0
KKE1 160719Z 22008KT 07/M02 A3017 RMK A01 T00731019  RH  052%=      5-min Rain = 0
KKE1 160720Z 23009KT 07/M02 A3017 RMK A01 T00731020  RH  052%=      5-min Rain = 0
KKE1 160721Z 22008KT 07/M02 A3017 RMK A01 T00731020  RH  052%=      5-min Rain = 0
KKE1 160722Z 23009KT 07/M02 A3017 RMK A01 T00731020  RH  052%=      5-min Rain = 0
KKE1 160723Z 23009KT 07/M02 A3017 RMK A01 T00731020  RH  052%=      5-min Rain = 0
KKE1 160724Z 23009KT 07/M02 A3017 RMK A01 T00731020  RH  052%=      5-min Rain = 0
KKE1 160725Z 22008KT 07/M02 A3017 RMK A01 T00731020  RH  052%=      5-min Rain = 0
KKE1 160726Z 22007KT 07/M02 A3017 RMK A01 T00721020  RH  052%=      5-min Rain = 0
KKE1 160727Z 22007KT 07/M02 A3017 RMK A01 T00711020  RH  052%=      5-min Rain = 0
KKE1 160728Z 22008KT 07/M02 A3017 RMK A01 T00701020  RH  053%=      5-min Rain = 0
KKE1 160729Z 22009KT 07/M02 A3017 RMK A01 T00701020  RH  053%=      5-min Rain = 0
KKE1 160730Z 23009KT 07/M02 A3017 RMK A01 T00701020  RH  053%=      5-min Rain = 0
KKE1 160731Z 23009KT 07/M02 A3017 RMK A01 T00711020  RH  052%=      5-min Rain = 0
KKE1 160732Z 23008KT 07/M02 A3017 RMK A01 T00721020  RH  052%=      5-min Rain = 0
KKE1 160733Z 23008KT 07/M02 A3017 RMK A01 T00731020  RH  052%=      5-min Rain = 0
KKE1 160734Z 22007KT 07/M02 A3017 RMK A01 T00731021  RH  051%=      5-min Rain = 0
KKE1 160735Z 23008KT 07/M02 A3017 RMK A01 T00741021  RH  051%=      5-min Rain = 0
KKE1 160736Z 23008KT 08/M02 A3017 RMK A01 T00751021  RH  051%=      5-min Rain = 0
KKE1 160737Z 24007KT 08/M02 A3017 RMK A01 T00761021  RH  050%=      5-min Rain = 0
KKE1 160738Z 24008KT 08/M02 A3017 RMK A01 T00771021  RH  050%=      5-min Rain = 0
KKE1 160739Z 24009KT 08/M02 A3017 RMK A01 T00761021  RH  050%=      5-min Rain = 0
KKE1 160740Z 24008KT 08/M02 A3017 RMK A01 T00761021  RH  050%=      5-min Rain = 0
KKE1 160741Z 24009KT 08/M02 A3017 RMK A01 T00761021  RH  050%=      5-min Rain = 0
KKE1 160742Z 24009KT 08/M02 A3017 RMK A01 T00761021  RH  050%=      5-min Rain = 0
KKE1 160743Z 24008KT 08/M02 A3017 RMK A01 T00761022  RH  050%=      5-min Rain = 0
KKE1 160744Z 24007KT 08/M02 A3017 RMK A01 T00761022  RH  050%=      5-min Rain = 0
KKE1 160745Z 24007KT 08/M02 A3017 RMK A01 T00761022  RH  050%=      5-min Rain = 0
KKE1 160746Z 23007KT 08/M02 A3017 RMK A01 T00761023  RH  049%=      5-min Rain = 0
KKE1 160747Z 24008KT 08/M02 A3017 RMK A01 T00771023  RH  049%=      5-min Rain = 0
KKE1 160748Z 24007KT 08/M02 A3017 RMK A01 T00771023  RH  049%=      5-min Rain = 0
KKE1 160749Z 24007KT 08/M02 A3016 RMK A01 T00771024  RH  049%=      5-min Rain = 0
KKE1 160750Z 24006KT 08/M02 A3016 RMK A01 T00771024  RH  049%=      5-min Rain = 0
KKE1 160751Z 24006KT 08/M02 A3016 RMK A01 T00771024  RH  049%=      5-min Rain = 0
KKE1 160752Z 24007KT 08/M02 A3016 RMK A01 T00771024  RH  049%=      5-min Rain = 0
KKE1 160753Z 23007KT 08/M03 A3016 RMK A01 T00771025  RH  048%=      5-min Rain = 0
KKE1 160754Z 24007KT 08/M03 A3016 RMK A01 T00781025  RH  048%=      5-min Rain = 0
KKE1 160755Z 24006KT 08/M03 A3016 RMK A01 T00791026  RH  048%=      5-min Rain = 0
KKE1 160756Z 24007KT 08/M03 A3016 RMK A01 T00781026  RH  048%=      5-min Rain = 0
KKE1 160757Z 24006KT 08/M03 A3016 RMK A01 T00781027  RH  047%=      5-min Rain = 0
KKE1 160758Z 24006KT 08/M03 A3016 RMK A01 T00781028  RH  047%=      5-min Rain = 0
KKE1 160759Z 24006KT 08/M03 A3016 RMK A01 T00791028  RH  047%=      5-min Rain = 0
KKE1 160800Z 24006KT 08/M03 A3016 RMK A01 T00801028  RH  046%=      5-min Rain = 0
KKE1 160801Z 24007KT 08/M03 A3016 RMK A01 T00791029  RH  046%=      5-min Rain = 0
KKE1 160802Z 24007KT 08/M03 A3016 RMK A01 T00791029  RH  046%=      5-min Rain = 0
KKE1 160803Z 24007KT 08/M03 A3016 RMK A01 T00791030  RH  046%=      5-min Rain = 0
KKE1 160804Z 24008KT 08/M03 A3016 RMK A01 T00791031  RH  045%=      5-min Rain = 0
KKE1 160805Z 24008KT 08/M03 A3016 RMK A01 T00791032  RH  045%=      5-min Rain = 0
KKE1 160806Z 24008KT 08/M03 A3016 RMK A01 T00801034  RH  045%=      5-min Rain = 0
KKE1 160807Z 24008KT 08/M03 A3016 RMK A01 T00811034  RH  044%=      5-min Rain = 0
KKE1 160808Z 23008KT 08/M04 A3016 RMK A01 T00821035  RH  044%=      5-min Rain = 0
KKE1 160809Z 23008KT 08/M04 A3016 RMK A01 T00821036  RH  043%=      5-min Rain = 0
KKE1 160810Z 23008KT 08/M04 A3016 RMK A01 T00831035  RH  043%=      5-min Rain = 0
KKE1 160811Z 23008KT 08/M04 A3016 RMK A01 T00821035  RH  043%=      5-min Rain = 0
KKE1 160812Z 24009KT 08/M04 A3016 RMK A01 T00821037  RH  043%=      5-min Rain = 0
KKE1 160813Z 23008KT 08/M04 A3016 RMK A01 T00831037  RH  043%=      5-min Rain = 0
KKE1 160814Z 23007KT 08/M04 A3016 RMK A01 T00831038  RH  042%=      5-min Rain = 0
KKE1 160815Z 24008KT 08/M04 A3016 RMK A01 T00831037  RH  042%=      5-min Rain = 0
KKE1 160816Z 23008KT 08/M04 A3016 RMK A01 T00831040  RH  042%=      5-min Rain = 0
KKE1 160817Z 24008KT 09/M04 A3016 RMK A01 T00851040  RH  041%=      5-min Rain = 0
KKE1 160818Z 24008KT 09/M04 A3016 RMK A01 T00851040  RH  041%=      5-min Rain = 0
KKE1 160819Z 23007KT 09/M04 A3016 RMK A01 T00851040  RH  041%=      5-min Rain = 0
KKE1 160820Z 23007KT 09/M04 A3016 RMK A01 T00851040  RH  041%=      5-min Rain = 0
KKE1 160821Z 23007KT 09/M04 A3016 RMK A01 T00851040  RH  041%=      5-min Rain = 0
KKE1 160822Z 22006KT 08/M04 A3016 RMK A01 T00841041  RH  041%=      5-min Rain = 0
KKE1 160823Z 23007KT 08/M04 A3016 RMK A01 T00821041  RH  042%=      5-min Rain = 0
KKE1 160824Z 23008KT 08/M04 A3016 RMK A01 T00821042  RH  041%=      5-min Rain = 0
KKE1 160825Z 24008KT 08/M04 A3016 RMK A01 T00831042  RH  041%=      5-min Rain = 0
KKE1 160826Z 24008KT 08/M04 A3016 RMK A01 T00841042  RH  041%=      5-min Rain = 0
KKE1 160827Z 23008KT 09/M04 A3016 RMK A01 T00851042  RH  041%=      5-min Rain = 0
KKE1 160828Z 23007KT 09/M04 A3016 RMK A01 T00851041  RH  041%=      5-min Rain = 0
KKE1 160829Z 24007KT 09/M04 A3016 RMK A01 T00851041  RH  041%=      5-min Rain = 0
KKE1 160830Z 23007KT 08/M04 A3016 RMK A01 T00841041  RH  041%=      5-min Rain = 0
KKE1 160831Z 23007KT 08/M04 A3016 RMK A01 T00831041  RH  041%=      5-min Rain = 0
KKE1 160832Z 24007KT 08/M04 A3016 RMK A01 T00821041  RH  042%=      5-min Rain = 0
KKE1 160833Z 24008KT 08/M04 A3016 RMK A01 T00811041  RH  042%=      5-min Rain = 0
KKE1 160834Z 24007KT 08/M04 A3016 RMK A01 T00811041  RH  042%=      5-min Rain = 0
KKE1 160835Z 24007KT 08/M04 A3016 RMK A01 T00801042  RH  042%=      5-min Rain = 0
KKE1 160836Z 24007KT 08/M04 A3016 RMK A01 T00811042  RH  042%=      5-min Rain = 0
KKE1 160837Z 24007KT 08/M04 A3016 RMK A01 T00811042  RH  042%=      5-min Rain = 0
KKE1 160838Z 24006KT 08/M04 A3016 RMK A01 T00811042  RH  042%=      5-min Rain = 0
KKE1 160839Z 23006KT 08/M04 A3016 RMK A01 T00801042  RH  042%=      5-min Rain = 0
KKE1 160840Z 23006KT 08/M04 A3016 RMK A01 T00791043  RH  042%=      5-min Rain = 0
KKE1 160841Z 23007KT 08/M04 A3016 RMK A01 T00791043  RH  042%=      5-min Rain = 0
KKE1 160842Z 24006KT 08/M04 A3016 RMK A01 T00791044  RH  041%=      5-min Rain = 0
KKE1 160843Z 24007KT 08/M05 A3016 RMK A01 T00791045  RH  041%=      5-min Rain = 0
KKE1 160844Z 24007KT 08/M05 A3016 RMK A01 T00791045  RH  041%=      5-min Rain = 0
KKE1 160845Z 24006KT 08/M05 A3016 RMK A01 T00791046  RH  041%=      5-min Rain = 0
KKE1 160846Z 24006KT 08/M05 A3016 RMK A01 T00791046  RH  041%=      5-min Rain = 0
KKE1 160847Z 23006KT 08/M05 A3016 RMK A01 T00801046  RH  041%=      5-min Rain = 0
KKE1 160848Z 23006KT 08/M05 A3016 RMK A01 T00801047  RH  040%=      5-min Rain = 0
KKE1 160849Z 23006KT 08/M05 A3016 RMK A01 T00801047  RH  040%=      5-min Rain = 0
KKE1 160850Z 23007KT 08/M05 A3016 RMK A01 T00811047  RH  040%=      5-min Rain = 0
KKE1 160851Z 23007KT 08/M05 A3016 RMK A01 T00811048  RH  040%=      5-min Rain = 0
KKE1 160852Z 23006KT 08/M05 A3016 RMK A01 T00821048  RH  040%=      5-min Rain = 0
KKE1 160853Z 23006KT 08/M05 A3016 RMK A01 T00821049  RH  039%=      5-min Rain = 0
KKE1 160854Z 22006KT 08/M05 A3016 RMK A01 T00821049  RH  039%=      5-min Rain = 0
KKE1 160855Z 22005KT 08/M05 A3016 RMK A01 T00831049  RH  039%=      5-min Rain = 0
KKE1 160856Z 23007KT 08/M05 A3016 RMK A01 T00821049  RH  039%=      5-min Rain = 0
KKE1 160857Z 23008KT 08/M05 A3016 RMK A01 T00821051  RH  039%=      5-min Rain = 0
KKE1 160858Z 23008KT 08/M05 A3016 RMK A01 T00831051  RH  038%=      5-min Rain = 0
KKE1 160859Z 23008KT 08/M05 A3016 RMK A01 T00841050  RH  038%=      5-min Rain = 0
KKE1 160900Z 23009KT 09/M05 A3016 RMK A01 T00851051  RH  038%=      5-min Rain = 0
KKE1 160901Z 22008KT 09/M05 A3016 RMK A01 T00871051  RH  037%=      5-min Rain = 0
KKE1 160902Z 22007KT 09/M05 A3016 RMK A01 T00871051  RH  037%=      5-min Rain = 0
KKE1 160903Z 22008KT 09/M05 A3016 RMK A01 T00871051  RH  037%=      5-min Rain = 0
KKE1 160904Z 22007KT 09/M05 A3016 RMK A01 T00871051  RH  037%=      5-min Rain = 0
KKE1 160905Z 23007KT 09/M05 A3016 RMK A01 T00881051  RH  037%=      5-min Rain = 0
KKE1 160906Z 23008KT 09/M05 A3016 RMK A01 T00901051  RH  036%=      5-min Rain = 0
KKE1 160907Z 23008KT 09/M05 A3016 RMK A01 T00901052  RH  036%=      5-min Rain = 0
KKE1 160908Z 23007KT 09/M05 A3016 RMK A01 T00911051  RH  036%=      5-min Rain = 0
KKE1 160909Z 23008KT 09/M05 A3016 RMK A01 T00911052  RH  036%=      5-min Rain = 0
KKE1 160910Z 23009KT 09/M05 A3016 RMK A01 T00911052  RH  036%=      5-min Rain = 0
KKE1 160911Z 23008KT 09/M05 A3016 RMK A01 T00921054  RH  035%=      5-min Rain = 0
KKE1 160912Z 23008KT 09/M05 A3016 RMK A01 T00931054  RH  035%=      5-min Rain = 0
KKE1 160913Z 23008KT 09/M05 A3016 RMK A01 T00931054  RH  035%=      5-min Rain = 0
KKE1 160914Z 23007KT 09/M05 A3016 RMK A01 T00931054  RH  035%=      5-min Rain = 0
KKE1 160915Z 23007KT 09/M05 A3016 RMK A01 T00931054  RH  035%=      5-min Rain = 0
KKE1 160916Z 23007KT 09/M06 A3016 RMK A01 T00921055  RH  035%=      5-min Rain = 0
KKE1 160917Z 23006KT 09/M06 A3016 RMK A01 T00921055  RH  035%=      5-min Rain = 0
KKE1 160918Z 23006KT 09/M06 A3016 RMK A01 T00911055  RH  035%=      5-min Rain = 0
KKE1 160919Z 23006KT 09/M06 A3016 RMK A01 T00911056  RH  035%=      5-min Rain = 0
KKE1 160920Z 23005KT 09/M06 A3015 RMK A01 T00911057  RH  035%=      5-min Rain = 0
KKE1 160921Z 23006KT 09/M06 A3015 RMK A01 T00911058  RH  034%=      5-min Rain = 0
KKE1 160922Z 24005KT 09/M06 A3015 RMK A01 T00921059  RH  034%=      5-min Rain = 0
KKE1 160923Z 23005KT 09/M06 A3015 RMK A01 T00921059  RH  034%=      5-min Rain = 0
KKE1 160924Z 23004KT 09/M06 A3015 RMK A01 T00911059  RH  034%=      5-min Rain = 0
KKE1 160925Z 24004KT 09/M06 A3015 RMK A01 T00901058  RH  035%=      5-min Rain = 0
KKE1 160926Z 24004KT 09/M06 A3015 RMK A01 T00881058  RH  035%=      5-min Rain = 0
KKE1 160927Z 24004KT 09/M06 A3015 RMK A01 T00871058  RH  035%=      5-min Rain = 0
KKE1 160928Z 23004KT 09/M06 A3015 RMK A01 T00851057  RH  036%=      5-min Rain = 0
KKE1 160929Z 22003KT 08/M06 A3015 RMK A01 T00821057  RH  037%=      5-min Rain = 0
KKE1 160930Z 23004KT 08/M06 A3015 RMK A01 T00811057  RH  037%=      5-min Rain = 0
KKE1 160931Z 22004KT 08/M06 A3015 RMK A01 T00801057  RH  037%=      5-min Rain = 0
KKE1 160932Z 22004KT 08/M06 A3015 RMK A01 T00791057  RH  038%=      5-min Rain = 0
KKE1 160933Z 23004KT 08/M06 A3015 RMK A01 T00781060  RH  037%=      5-min Rain = 0
KKE1 160934Z 23003KT 08/M06 A3015 RMK A01 T00791060  RH  037%=      5-min Rain = 0
KKE1 160935Z 24003KT 08/M06 A3015 RMK A01 T00791059  RH  037%=      5-min Rain = 0
KKE1 160936Z 23003KT 08/M06 A3015 RMK A01 T00771059  RH  038%=      5-min Rain = 0
KKE1 160937Z 22003KT 08/M06 A3015 RMK A01 T00751060  RH  038%=      5-min Rain = 0
KKE1 160938Z 22003KT 08/M06 A3015 RMK A01 T00751060  RH  038%=      5-min Rain = 0
KKE1 160939Z 21004KT 08/M06 A3015 RMK A01 T00751060  RH  038%=      5-min Rain = 0
KKE1 160940Z 21004KT 07/M06 A3015 RMK A01 T00741061  RH  038%=      5-min Rain = 0
KKE1 160941Z 22003KT 08/M06 A3015 RMK A01 T00751061  RH  037%=      5-min Rain = 0
KKE1 160942Z 22004KT 08/M06 A3015 RMK A01 T00761061  RH  037%=      5-min Rain = 0
KKE1 160943Z 23005KT 08/M06 A3015 RMK A01 T00771063  RH  036%=      5-min Rain = 0
KKE1 160944Z 22004KT 08/M06 A3015 RMK A01 T00801063  RH  036%=      5-min Rain = 0
KKE1 160945Z 23004KT 08/M06 A3015 RMK A01 T00801062  RH  036%=      5-min Rain = 0
KKE1 160946Z 23004KT 08/M06 A3015 RMK A01 T00801063  RH  036%=      5-min Rain = 0
KKE1 160947Z 23004KT 08/M06 A3015 RMK A01 T00791061  RH  036%=      5-min Rain = 0
KKE1 160948Z 23004KT 08/M06 A3015 RMK A01 T00771062  RH  037%=      5-min Rain = 0
KKE1 160949Z 23004KT 08/M06 A3015 RMK A01 T00771062  RH  037%=      5-min Rain = 0
KKE1 160950Z 23005KT 08/M06 A3015 RMK A01 T00771063  RH  036%=      5-min Rain = 0
KKE1 160951Z 23004KT 08/M06 A3015 RMK A01 T00771062  RH  037%=      5-min Rain = 0
KKE1 160952Z 24004KT 08/M06 A3015 RMK A01 T00761063  RH  037%=      5-min Rain = 0
KKE1 160953Z 23005KT 08/M07 A3015 RMK A01 T00771065  RH  036%=      5-min Rain = 0
KKE1 160954Z 23005KT 08/M07 A3015 RMK A01 T00801065  RH  035%=      5-min Rain = 0
KKE1 160955Z 24005KT 08/M07 A3014 RMK A01 T00811065  RH  035%=      5-min Rain = 0
KKE1 160956Z 23005KT 08/M07 A3014 RMK A01 T00831065  RH  034%=      5-min Rain = 0
KKE1 160957Z 24004KT 08/M07 A3014 RMK A01 T00831065  RH  034%=      5-min Rain = 0
KKE1 160958Z 24004KT 09/M07 A3014 RMK A01 T00851066  RH  034%=      5-min Rain = 0
KKE1 160959Z 24004KT 09/M07 A3014 RMK A01 T00861066  RH  034%=      5-min Rain = 0
KKE1 161000Z 24004KT 09/M07 A3014 RMK A01 T00851066  RH  033%=      5-min Rain = 0
KKE1 161001Z 24004KT 09/M07 A3014 RMK A01 T00861066  RH  033%=      5-min Rain = 0
KKE1 161002Z 25004KT 09/M07 A3014 RMK A01 T00851065  RH  034%=      5-min Rain = 0
KKE1 161003Z 27004KT 08/M06 A3014 RMK A01 T00841064  RH  034%=      5-min Rain = 0
KKE1 161004Z 27006KT 08/M06 A3014 RMK A01 T00831064  RH  035%=      5-min Rain = 0
KKE1 161005Z 26006KT 08/M06 A3014 RMK A01 T00821064  RH  035%=      5-min Rain = 0
KKE1 161006Z 26007KT 08/M06 A3014 RMK A01 T00811063  RH  035%=      5-min Rain = 0
KKE1 161007Z 26007KT 08/M06 A3014 RMK A01 T00811062  RH  036%=      5-min Rain = 0
KKE1 161008Z 25006KT 08/M06 A3014 RMK A01 T00821060  RH  036%=      5-min Rain = 0
KKE1 161009Z 25007KT 08/M06 A3014 RMK A01 T00841060  RH  036%=      5-min Rain = 0
KKE1 161010Z 25007KT 09/M06 A3014 RMK A01 T00871059  RH  035%=      5-min Rain = 0
KKE1 161011Z 25007KT 09/M06 A3014 RMK A01 T00891060  RH  034%=      5-min Rain = 0
KKE1 161012Z 25007KT 09/M06 A3014 RMK A01 T00921060  RH  034%=      5-min Rain = 0
KKE1 161013Z 25006KT 09/M06 A3014 RMK A01 T00931060  RH  034%=      5-min Rain = 0
KKE1 161014Z 24006KT 09/M06 A3014 RMK A01 T00931060  RH  033%=      5-min Rain = 0
KKE1 161015Z 24007KT 09/M06 A3014 RMK A01 T00931060  RH  033%=      5-min Rain = 0
KKE1 161016Z 24006KT 09/M06 A3014 RMK A01 T00931059  RH  034%=      5-min Rain = 0
KKE1 161017Z 24006KT 09/M06 A3014 RMK A01 T00931059  RH  034%=      5-min Rain = 0
KKE1 161018Z 24006KT 09/M06 A3014 RMK A01 T00921059  RH  034%=      5-min Rain = 0
KKE1 161019Z 24006KT 09/M06 A3014 RMK A01 T00921059  RH  034%=      5-min Rain = 0
KKE1 161020Z 24006KT 09/M06 A3014 RMK A01 T00911058  RH  034%=      5-min Rain = 0
KKE1 161021Z 24006KT 09/M06 A3014 RMK A01 T00901058  RH  035%=      5-min Rain = 0
KKE1 161022Z 24005KT 09/M06 A3014 RMK A01 T00901058  RH  035%=      5-min Rain = 0
KKE1 161023Z 24005KT 09/M06 A3014 RMK A01 T00901057  RH  035%=      5-min Rain = 0
KKE1 161024Z 24005KT 09/M06 A3014 RMK A01 T00901057  RH  035%=      5-min Rain = 0
KKE1 161025Z 23006KT 09/M06 A3014 RMK A01 T00901056  RH  035%=      5-min Rain = 0
KKE1 161026Z 24006KT 09/M06 A3014 RMK A01 T00901056  RH  035%=      5-min Rain = 0
KKE1 161027Z 24006KT 09/M06 A3014 RMK A01 T00891056  RH  035%=      5-min Rain = 0
KKE1 161028Z 24005KT 09/M06 A3014 RMK A01 T00891056  RH  035%=      5-min Rain = 0
KKE1 161029Z 24004KT 09/M06 A3014 RMK A01 T00891056  RH  035%=      5-min Rain = 0
KKE1 161030Z 24004KT 09/M06 A3014 RMK A01 T00891055  RH  036%=      5-min Rain = 0
KKE1 161031Z 25004KT 09/M06 A3014 RMK A01 T00881055  RH  036%=      5-min Rain = 0
KKE1 161032Z 25005KT 09/M06 A3014 RMK A01 T00871055  RH  036%=      5-min Rain = 0
KKE1 161033Z 25005KT 09/M06 A3014 RMK A01 T00861055  RH  036%=      5-min Rain = 0
KKE1 161034Z 25005KT 09/M06 A3014 RMK A01 T00861055  RH  036%=      5-min Rain = 0
KKE1 161035Z 25004KT 09/M06 A3014 RMK A01 T00871055  RH  036%=      5-min Rain = 0
KKE1 161036Z 25004KT 09/M05 A3014 RMK A01 T00871054  RH  036%=      5-min Rain = 0
KKE1 161037Z 25004KT 09/M05 A3014 RMK A01 T00871054  RH  036%=      5-min Rain = 0
KKE1 161038Z 25003KT 09/M05 A3014 RMK A01 T00871054  RH  036%=      5-min Rain = 0
KKE1 161039Z 25003KT 09/M05 A3014 RMK A01 T00871054  RH  037%=      5-min Rain = 0
KKE1 161040Z 25004KT 09/M05 A3014 RMK A01 T00871054  RH  037%=      5-min Rain = 0
KKE1 161041Z 27003KT 09/M05 A3014 RMK A01 T00871053  RH  036%=      5-min Rain = 0
KKE1 161042Z 27003KT 09/M05 A3014 RMK A01 T00871053  RH  037%=      5-min Rain = 0
KKE1 161043Z 27003KT 09/M05 A3014 RMK A01 T00871053  RH  037%=      5-min Rain = 0
KKE1 161044Z 26003KT 09/M05 A3014 RMK A01 T00861053  RH  037%=      5-min Rain = 0
KKE1 161045Z 26004KT 09/M05 A3014 RMK A01 T00861052  RH  037%=      5-min Rain = 0
KKE1 161046Z 25004KT 09/M05 A3014 RMK A01 T00851051  RH  038%=      5-min Rain = 0
KKE1 161047Z 25003KT 09/M05 A3014 RMK A01 T00851051  RH  038%=      5-min Rain = 0
KKE1 161048Z 25003KT 09/M05 A3014 RMK A01 T00861050  RH  038%=      5-min Rain = 0
KKE1 161049Z 24002KT 09/M05 A3014 RMK A01 T00861050  RH  038%=      5-min Rain = 0
KKE1 161050Z 25001KT 09/M05 A3014 RMK A01 T00861050  RH  038%=      5-min Rain = 0
KKE1 161051Z 25000KT 09/M05 A3014 RMK A01 T00851050  RH  038%=      5-min Rain = 0
KKE1 161052Z 00000KT 08/M05 A3014 RMK A01 T00841050  RH  038%=      5-min Rain = 0
KKE1 161053Z 18000KT 08/M05 A3014 RMK A01 T00841049  RH  038%=      5-min Rain = 0
KKE1 161054Z 00000KT 08/M05 A3014 RMK A01 T00831050  RH  039%=      5-min Rain = 0
KKE1 161055Z 14000KT 08/M05 A3014 RMK A01 T00831049  RH  039%=      5-min Rain = 0
KKE1 161056Z 14001KT 08/M05 A3014 RMK A01 T00811049  RH  039%=      5-min Rain = 0
KKE1 161057Z 12002KT 08/M05 A3014 RMK A01 T00781050  RH  040%=      5-min Rain = 0
KKE1 161058Z 15003KT 08/M05 A3014 RMK A01 T00761049  RH  041%=      5-min Rain = 0
KKE1 161059Z 17003KT 08/M05 A3014 RMK A01 T00751048  RH  041%=      5-min Rain = 0
KKE1 161100Z 17003KT 08/M05 A3014 RMK A01 T00791048  RH  040%=      5-min Rain = 0
KKE1 161101Z 19003KT 08/M05 A3014 RMK A01 T00841046  RH  040%=      5-min Rain = 0
KKE1 161102Z 19003KT 09/M05 A3014 RMK A01 T00881045  RH  039%=      5-min Rain = 0
KKE1 161103Z 19003KT 09/M05 A3014 RMK A01 T00901045  RH  038%=      5-min Rain = 0
KKE1 161104Z 19003KT 09/M05 A3014 RMK A01 T00911045  RH  038%=      5-min Rain = 0
KKE1 161105Z 19003KT 09/M04 A3014 RMK A01 T00921044  RH  038%=      5-min Rain = 0
KKE1 161106Z 19004KT 09/M04 A3014 RMK A01 T00911044  RH  038%=      5-min Rain = 0
KKE1 161107Z 20004KT 09/M04 A3014 RMK A01 T00931043  RH  038%=      5-min Rain = 0
KKE1 161108Z 21003KT 09/M04 A3014 RMK A01 T00941042  RH  038%=      5-min Rain = 0
KKE1 161109Z 22003KT 09/M04 A3014 RMK A01 T00941042  RH  038%=      5-min Rain = 0
KKE1 161110Z 23003KT 09/M04 A3014 RMK A01 T00931042  RH  038%=      5-min Rain = 0
KKE1 161111Z 23001KT 09/M04 A3014 RMK A01 T00931042  RH  038%=      5-min Rain = 0
KKE1 161112Z 22002KT 09/M04 A3014 RMK A01 T00941042  RH  038%=      5-min Rain = 0
KKE1 161113Z 21002KT 10/M04 A3013 RMK A01 T00961041  RH  038%=      5-min Rain = 0
KKE1 161114Z 22003KT 10/M04 A3013 RMK A01 T00991041  RH  037%=      5-min Rain = 0
KKE1 161115Z 21002KT 10/M04 A3013 RMK A01 T01001040  RH  037%=      5-min Rain = 0
KKE1 161116Z 22000KT 10/M04 A3013 RMK A01 T01011039  RH  037%=      5-min Rain = 0
KKE1 161117Z 22003KT 10/M04 A3013 RMK A01 T01011039  RH  037%=      5-min Rain = 0
KKE1 161118Z 23001KT 10/M04 A3013 RMK A01 T01021039  RH  037%=      5-min Rain = 0
KKE1 161119Z 23001KT 10/M04 A3013 RMK A01 T01021039  RH  037%=      5-min Rain = 0
KKE1 161120Z 25002KT 10/M04 A3013 RMK A01 T01021039  RH  037%=      5-min Rain = 0
KKE1 161121Z 24002KT 10/M04 A3013 RMK A01 T01031038  RH  037%=      5-min Rain = 0
KKE1 161122Z 24001KT 10/M04 A3013 RMK A01 T01031038  RH  037%=      5-min Rain = 0
KKE1 161123Z 23002KT 10/M04 A3013 RMK A01 T01021037  RH  037%=      5-min Rain = 0
KKE1 161124Z 25003KT 10/M04 A3013 RMK A01 T01011038  RH  037%=      5-min Rain = 0
KKE1 161125Z 23003KT 10/M04 A3013 RMK A01 T01021037  RH  037%=      5-min Rain = 0
KKE1 161126Z 22004KT 10/M04 A3013 RMK A01 T01031036  RH  037%=      5-min Rain = 0
KKE1 161127Z 23005KT 11/M04 A3013 RMK A01 T01051035  RH  037%=      5-min Rain = 0
KKE1 161128Z 23005KT 11/M03 A3013 RMK A01 T01081033  RH  037%=      5-min Rain = 0
KKE1 161129Z 22004KT 11/M03 A3013 RMK A01 T01131032  RH  036%=      5-min Rain = 0
KKE1 161130Z 23005KT 12/M03 A3013 RMK A01 T01181032  RH  035%=      5-min Rain = 0
KKE1 161131Z 22004KT 12/M03 A3013 RMK A01 T01201032  RH  035%=      5-min Rain = 0
KKE1 161132Z 22004KT 12/M03 A3013 RMK A01 T01211032  RH  034%=      5-min Rain = 0
KKE1 161133Z 22004KT 12/M03 A3013 RMK A01 T01221032  RH  034%=      5-min Rain = 0
KKE1 161134Z 23005KT 12/M03 A3013 RMK A01 T01231032  RH  034%=      5-min Rain = 0
KKE1 161135Z 22005KT 12/M03 A3013 RMK A01 T01241031  RH  034%=      5-min Rain = 0
KKE1 161136Z 22005KT 12/M03 A3013 RMK A01 T01241032  RH  034%=      5-min Rain = 0
KKE1 161137Z 22005KT 12/M03 A3013 RMK A01 T01241032  RH  033%=      5-min Rain = 0
KKE1 161138Z 22006KT 13/M03 A3013 RMK A01 T01251032  RH  033%=      5-min Rain = 0
KKE1 161139Z 22006KT 13/M03 A3013 RMK A01 T01261031  RH  033%=      5-min Rain = 0
KKE1 161140Z 21006KT 13/M03 A3013 RMK A01 T01251031  RH  033%=      5-min Rain = 0
KKE1 161141Z 22007KT 13/M03 A3013 RMK A01 T01261030  RH  034%=      5-min Rain = 0
KKE1 161142Z 22007KT 13/M03 A3013 RMK A01 T01261030  RH  034%=      5-min Rain = 0
KKE1 161143Z 22008KT 13/M03 A3013 RMK A01 T01281029  RH  033%=      5-min Rain = 0
KKE1 161144Z 22009KT 13/M03 A3013 RMK A01 T01291029  RH  033%=      5-min Rain = 0
KKE1 161145Z 22009KT 13/M03 A3013 RMK A01 T01311028  RH  033%=      5-min Rain = 0
KKE1 161146Z 22009KT 13/M03 A3013 RMK A01 T01311029  RH  033%=      5-min Rain = 0
KKE1 161147Z 22008KT 13/M03 A3013 RMK A01 T01321029  RH  033%=      5-min Rain = 0
KKE1 161148Z 22009KT 13/M03 A3013 RMK A01 T01321028  RH  033%=      5-min Rain = 0
KKE1 161149Z 22009KT 13/M03 A3013 RMK A01 T01321028  RH  033%=      5-min Rain = 0
KKE1 161150Z 22009KT 13/M03 A3013 RMK A01 T01321028  RH  033%=      5-min Rain = 0
KKE1 161151Z 22010KT 13/M03 A3013 RMK A01 T01321028  RH  033%=      5-min Rain = 0
KKE1 161152Z 22009KT 13/M03 A3013 RMK A01 T01321028  RH  033%=      5-min Rain = 0
KKE1 161153Z 22009KT 13/M03 A3013 RMK A01 T01321028  RH  033%=      5-min Rain = 0
KKE1 161154Z 23012KT 13/M03 A3013 RMK A01 T01321028  RH  033%=      5-min Rain = 0
KKE1 161155Z 23012KT 13/M03 A3013 RMK A01 T01331027  RH  033%=      5-min Rain = 0
KKE1 161156Z 23012KT 13/M03 A3013 RMK A01 T01321028  RH  033%=      5-min Rain = 0
KKE1 161157Z 22011KT 13/M03 A3013 RMK A01 T01321027  RH  033%=      5-min Rain = 0
KKE1 161158Z 22010KT 13/M03 A3013 RMK A01 T01321027  RH  033%=      5-min Rain = 0
KKE1 161159Z 22010KT 13/M03 A3013 RMK A01 T01311027  RH  033%=      5-min Rain = 0
KKE1 161200Z 22010KT 13/M03 A3013 RMK A01 T01311026  RH  033%=      5-min Rain = 0
KKE1 161201Z 22010KT 13/M03 A3013 RMK A01 T01311026  RH  034%=      5-min Rain = 0
KKE1 161202Z 23012KT 13/M03 A3013 RMK A01 T01301026  RH  034%=      5-min Rain = 0
KKE1 161203Z 23013KT 13/M03 A3013 RMK A01 T01311026  RH  034%=      5-min Rain = 0
KKE1 161204Z 22013KT 13/M03 A3013 RMK A01 T01321025  RH  033%=      5-min Rain = 0
KKE1 161205Z 23012KT 13/M03 A3013 RMK A01 T01331025  RH  033%=      5-min Rain = 0
KKE1 161206Z 23012KT 13/M03 A3013 RMK A01 T01321025  RH  033%=      5-min Rain = 0
KKE1 161207Z 23013KT 13/M03 A3013 RMK A01 T01321025  RH  033%=      5-min Rain = 0
KKE1 161208Z 23011KT 13/M03 A3013 RMK A01 T01321025  RH  034%=      5-min Rain = 0
KKE1 161209Z 23010KT 13/M03 A3013 RMK A01 T01321025  RH  034%=      5-min Rain = 0
KKE1 161210Z 24010KT 13/M02 A3013 RMK A01 T01301024  RH  034%=      5-min Rain = 0
KKE1 161211Z 23010KT 13/M02 A3013 RMK A01 T01281024  RH  035%=      5-min Rain = 0
KKE1 161212Z 23011KT 13/M02 A3013 RMK A01 T01271024  RH  035%=      5-min Rain = 0
KKE1 161213Z 23010KT 13/M02 A3013 RMK A01 T01271024  RH  035%=      5-min Rain = 0
KKE1 161214Z 24008KT 13/M02 A3013 RMK A01 T01271023  RH  035%=      5-min Rain = 0
KKE1 161215Z 24007KT 12/M02 A3013 RMK A01 T01231024  RH  036%=      5-min Rain = 0
KKE1 161216Z 24008KT 12/M03 A3013 RMK A01 T01151026  RH  037%=      5-min Rain = 0
KKE1 161217Z 23009KT 11/M02 A3013 RMK A01 T01131024  RH  038%=      5-min Rain = 0
KKE1 161218Z 23009KT 12/M02 A3014 RMK A01 T01151022  RH  038%=      5-min Rain = 0
KKE1 161219Z 23009KT 12/M02 A3014 RMK A01 T01191021  RH  038%=      5-min Rain = 0
KKE1 161220Z 23009KT 12/M02 A3014 RMK A01 T01221021  RH  037%=      5-min Rain = 0
KKE1 161221Z 23009KT 12/M02 A3014 RMK A01 T01241021  RH  037%=      5-min Rain = 0
KKE1 161222Z 24007KT 12/M02 A3014 RMK A01 T01241021  RH  037%=      5-min Rain = 0
KKE1 161223Z 24007KT 12/M02 A3014 RMK A01 T01191023  RH  037%=      5-min Rain = 0
KKE1 161224Z 23007KT 11/M02 A3014 RMK A01 T01141023  RH  038%=      5-min Rain = 0
KKE1 161225Z 23006KT 11/M02 A3014 RMK A01 T01121022  RH  039%=      5-min Rain = 0
KKE1 161226Z 24006KT 11/M02 A3014 RMK A01 T01111021  RH  040%=      5-min Rain = 0
KKE1 161227Z 24009KT 11/M02 A3014 RMK A01 T01091021  RH  040%=      5-min Rain = 0
KKE1 161228Z 24009KT 11/M02 A3014 RMK A01 T01091021  RH  040%=      5-min Rain = 0
KKE1 161229Z 23009KT 11/M02 A3014 RMK A01 T01101020  RH  040%=      5-min Rain = 0
KKE1 161230Z 24009KT 11/M02 A3014 RMK A01 T01111020  RH  040%=      5-min Rain = 0
KKE1 161231Z 23009KT 11/M02 A3014 RMK A01 T01131020  RH  040%=      5-min Rain = 0
KKE1 161232Z 24009KT 11/M02 A3014 RMK A01 T01141019  RH  039%=      5-min Rain = 0
KKE1 161233Z 24008KT 12/M02 A3014 RMK A01 T01161019  RH  039%=      5-min Rain = 0
KKE1 161234Z 24009KT 12/M02 A3014 RMK A01 T01161019  RH  039%=      5-min Rain = 0
KKE1 161235Z 23010KT 12/M02 A3014 RMK A01 T01151019  RH  039%=      5-min Rain = 0
KKE1 161236Z 23010KT 12/M02 A3013 RMK A01 T01161019  RH  039%=      5-min Rain = 0
KKE1 161237Z 23010KT 12/M02 A3013 RMK A01 T01191019  RH  038%=      5-min Rain = 0
KKE1 161238Z 24009KT 12/M02 A3013 RMK A01 T01211018  RH  038%=      5-min Rain = 0
KKE1 161239Z 24008KT 12/M02 A3013 RMK A01 T01211018  RH  038%=      5-min Rain = 0
KKE1 161240Z 24008KT 12/M02 A3013 RMK A01 T01191019  RH  038%=      5-min Rain = 0
KKE1 161241Z 25009KT 12/M02 A3013 RMK A01 T01161019  RH  039%=      5-min Rain = 0
KKE1 161242Z 24010KT 11/M02 A3013 RMK A01 T01131019  RH  040%=      5-min Rain = 0
KKE1 161243Z 23011KT 11/M02 A3013 RMK A01 T01111019  RH  040%=      5-min Rain = 0
KKE1 161244Z 23011KT 12/M02 A3013 RMK A01 T01151018  RH  040%=      5-min Rain = 0
KKE1 161245Z 23011KT 12/M02 A3013 RMK A01 T01181017  RH  039%=      5-min Rain = 0
KKE1 161246Z 25009KT 12/M02 A3013 RMK A01 T01201017  RH  039%=      5-min Rain = 0
KKE1 161247Z 24009KT 12/M02 A3013 RMK A01 T01171018  RH  039%=      5-min Rain = 0
KKE1 161248Z 24009KT 11/M02 A3013 RMK A01 T01131018  RH  040%=      5-min Rain = 0
KKE1 161249Z 24009KT 11/M02 A3013 RMK A01 T01101018  RH  041%=      5-min Rain = 0
KKE1 161250Z 23009KT 11/M02 A3013 RMK A01 T01101018  RH  041%=      5-min Rain = 0
KKE1 161251Z 23009KT 11/M02 A3013 RMK A01 T01121017  RH  041%=      5-min Rain = 0
KKE1 161252Z 23009KT 11/M02 A3013 RMK A01 T01131016  RH  040%=      5-min Rain = 0
KKE1 161253Z 24008KT 11/M02 A3013 RMK A01 T01141016  RH  040%=      5-min Rain = 0
KKE1 161254Z 24009KT 11/M02 A3013 RMK A01 T01121017  RH  041%=      5-min Rain = 0
KKE1 161255Z 24009KT 11/M02 A3013 RMK A01 T01091017  RH  041%=      5-min Rain = 0
KKE1 161256Z 24009KT 11/M02 A3013 RMK A01 T01091016  RH  042%=      5-min Rain = 0
KKE1 161257Z 24009KT 11/M02 A3013 RMK A01 T01091016  RH  042%=      5-min Rain = 0
KKE1 161258Z 24009KT 11/M02 A3013 RMK A01 T01081016  RH  042%=      5-min Rain = 0
KKE1 161259Z 24008KT 11/M02 A3013 RMK A01 T01081015  RH  042%=      5-min Rain = 0
KKE1 161300Z 24009KT 11/M02 A3013 RMK A01 T01081015  RH  042%=      5-min Rain = 0
KKE1 161301Z 24008KT 11/M01 A3013 RMK A01 T01091014  RH  042%=      5-min Rain = 0
KKE1 161302Z 24009KT 11/M01 A3013 RMK A01 T01101013  RH  042%=      5-min Rain = 0
KKE1 161303Z 24009KT 11/M01 A3013 RMK A01 T01121012  RH  042%=      5-min Rain = 0
KKE1 161304Z 24008KT 11/M01 A3013 RMK A01 T01131012  RH  042%=      5-min Rain = 0
KKE1 161305Z 24009KT 11/M01 A3013 RMK A01 T01131011  RH  042%=      5-min Rain = 0
KKE1 161306Z 24009KT 11/M01 A3013 RMK A01 T01141011  RH  042%=      5-min Rain = 0
KKE1 161307Z 24009KT 11/M01 A3013 RMK A01 T01131011  RH  042%=      5-min Rain = 0
KKE1 161308Z 24009KT 11/M01 A3013 RMK A01 T01141011  RH  042%=      5-min Rain = 0
KKE1 161309Z 24009KT 11/M01 A3013 RMK A01 T01141011  RH  042%=      5-min Rain = 0
KKE1 161310Z 24008KT 11/M01 A3013 RMK A01 T01141010  RH  042%=      5-min Rain = 0
KKE1 161311Z 24008KT 11/M01 A3013 RMK A01 T01141010  RH  042%=      5-min Rain = 0
KKE1 161312Z 24009KT 12/M01 A3013 RMK A01 T01151009  RH  042%=      5-min Rain = 0
KKE1 161313Z 23010KT 12/M01 A3013 RMK A01 T01161008  RH  042%=      5-min Rain = 0
KKE1 161314Z 23010KT 12/M01 A3013 RMK A01 T01181008  RH  042%=      5-min Rain = 0
KKE1 161315Z 24009KT 12/M01 A3013 RMK A01 T01201007  RH  041%=      5-min Rain = 0
KKE1 161316Z 23010KT 12/M01 A3013 RMK A01 T01201007  RH  041%=      5-min Rain = 0
KKE1 161317Z 24009KT 12/M01 A3013 RMK A01 T01211007  RH  041%=      5-min Rain = 0
KKE1 161318Z 23010KT 12/M01 A3013 RMK A01 T01211006  RH  042%=      5-min Rain = 0
KKE1 161319Z 23010KT 12/M01 A3013 RMK A01 T01201006  RH  042%=      5-min Rain = 0
KKE1 161320Z 24009KT 12/M01 A3013 RMK A01 T01211005  RH  042%=      5-min Rain = 0
KKE1 161321Z 23010KT 12/M01 A3013 RMK A01 T01211005  RH  042%=      5-min Rain = 0
KKE1 161322Z 23011KT 12/M01 A3013 RMK A01 T01201005  RH  042%=      5-min Rain = 0
KKE1 161323Z 23010KT 12/M00 A3013 RMK A01 T01211004  RH  042%=      5-min Rain = 0
KKE1 161324Z 23010KT 12/M00 A3013 RMK A01 T01211004  RH  042%=      5-min Rain = 0
KKE1 161325Z 23011KT 12/M00 A3013 RMK A01 T01201004  RH  042%=      5-min Rain = 0
KKE1 161326Z 23011KT 12/M00 A3013 RMK A01 T01201004  RH  042%=      5-min Rain = 0
KKE1 161327Z 24011KT 12/M00 A3013 RMK A01 T01201004  RH  042%=      5-min Rain = 0
KKE1 161328Z 24011KT 12/M00 A3014 RMK A01 T01191004  RH  043%=      5-min Rain = 0
KKE1 161329Z 24011KT 12/M00 A3014 RMK A01 T01181004  RH  043%=      5-min Rain = 0
KKE1 161330Z 24011KT 12/M00 A3014 RMK A01 T01171004  RH  043%=      5-min Rain = 0
KKE1 161331Z 24010KT 12/M00 A3014 RMK A01 T01171004  RH  043%=      5-min Rain = 0
KKE1 161332Z 24009KT 12/M00 A3014 RMK A01 T01161004  RH  044%=      5-min Rain = 0
KKE1 161333Z 23010KT 11/M00 A3014 RMK A01 T01141004  RH  044%=      5-min Rain = 0
KKE1 161334Z 24010KT 11/M00 A3014 RMK A01 T01131004  RH  044%=      5-min Rain = 0
KKE1 161335Z 24009KT 11/M00 A3014 RMK A01 T01131004  RH  044%=      5-min Rain = 0
KKE1 161336Z 24010KT 11/M00 A3014 RMK A01 T01111004  RH  045%=      5-min Rain = 0
KKE1 161337Z 24010KT 11/M00 A3014 RMK A01 T01101004  RH  045%=      5-min Rain = 0
KKE1 161338Z 24010KT 11/M00 A3014 RMK A01 T01091004  RH  046%=      5-min Rain = 0
KKE1 161339Z 24009KT 11/M00 A3014 RMK A01 T01091003  RH  046%=      5-min Rain = 0
KKE1 161340Z 23009KT 11/M00 A3014 RMK A01 T01091002  RH  046%=      5-min Rain = 0
KKE1 161341Z 23010KT 11/M00 A3014 RMK A01 T01101002  RH  046%=      5-min Rain = 0
KKE1 161342Z 23009KT 11/M00 A3014 RMK A01 T01101002  RH  046%=      5-min Rain = 0
KKE1 161343Z 23009KT 11/M00 A3014 RMK A01 T01101002  RH  046%=      5-min Rain = 0
KKE1 161344Z 23010KT 11/M00 A3014 RMK A01 T01091001  RH  046%=      5-min Rain = 0
KKE1 161345Z 23009KT 11/M00 A3014 RMK A01 T01091001  RH  046%=      5-min Rain = 0
KKE1 161346Z 23010KT 11/M00 A3014 RMK A01 T01091001  RH  047%=      5-min Rain = 0
KKE1 161347Z 23010KT 11/M00 A3014 RMK A01 T01091001  RH  046%=      5-min Rain = 0
KKE1 161348Z 23011KT 11/M00 A3014 RMK A01 T01091001  RH  047%=      5-min Rain = 0
KKE1 161349Z 23009KT 11/00 A3014 RMK A01 T010900-0  RH  047%=      5-min Rain = 0
KKE1 161350Z 24009KT 11/00 A3014 RMK A01 T010900-0  RH  047%=      5-min Rain = 0
KKE1 161351Z 24009KT 11/00 A3014 RMK A01 T01090000  RH  047%=      5-min Rain = 0
KKE1 161352Z 24009KT 11/00 A3014 RMK A01 T010800-0  RH  047%=      5-min Rain = 0
KKE1 161353Z 24009KT 11/00 A3014 RMK A01 T01070000  RH  048%=      5-min Rain = 0
KKE1 161354Z 24008KT 11/00 A3014 RMK A01 T01070000  RH  048%=      5-min Rain = 0
KKE1 161355Z 24009KT 11/00 A3014 RMK A01 T01070000  RH  048%=      5-min Rain = 0
KKE1 161356Z 23010KT 11/00 A3014 RMK A01 T01060001  RH  048%=      5-min Rain = 0
KKE1 161357Z 23009KT 11/00 A3014 RMK A01 T01070002  RH  048%=      5-min Rain = 0
KKE1 161358Z 23009KT 11/00 A3014 RMK A01 T01110004  RH  048%=      5-min Rain = 0
KKE1 161359Z 24008KT 11/01 A3014 RMK A01 T01130005  RH  047%=      5-min Rain = 0
KKE1 161400Z 23008KT 11/01 A3014 RMK A01 T01140005  RH  047%=      5-min Rain = 0
KKE1 161401Z 23009KT 11/01 A3014 RMK A01 T01140005  RH  047%=      5-min Rain = 0
KKE1 161402Z 23009KT 12/01 A3014 RMK A01 T01190008  RH  047%=      5-min Rain = 0
KKE1 161403Z 23010KT 12/01 A3014 RMK A01 T01240008  RH  045%=      5-min Rain = 0
KKE1 161404Z 23008KT 13/01 A3014 RMK A01 T01270008  RH  044%=      5-min Rain = 0
KKE1 161405Z 24006KT 13/01 A3014 RMK A01 T01270008  RH  044%=      5-min Rain = 0
KKE1 161406Z 24008KT 12/01 A3014 RMK A01 T01240006  RH  044%=      5-min Rain = 0
KKE1 161407Z 23009KT 12/01 A3014 RMK A01 T01220006  RH  045%=      5-min Rain = 0
KKE1 161408Z 23009KT 12/01 A3014 RMK A01 T01220007  RH  045%=      5-min Rain = 0
KKE1 161409Z 23009KT 12/01 A3014 RMK A01 T01240008  RH  045%=      5-min Rain = 0
KKE1 161410Z 23011KT 13/01 A3014 RMK A01 T01270008  RH  044%=      5-min Rain = 0
KKE1 161411Z 23009KT 13/01 A3014 RMK A01 T01300009  RH  044%=      5-min Rain = 0
KKE1 161412Z 23008KT 13/01 A3014 RMK A01 T01320009  RH  043%=      5-min Rain = 0
KKE1 161413Z 22012KT 13/01 A3014 RMK A01 T01320009  RH  043%=      5-min Rain = 0
KKE1 161414Z 23012KT 13/01 A3014 RMK A01 T01340009  RH  043%=      5-min Rain = 0
KKE1 161415Z 22012KT 14/01 A3014 RMK A01 T01360009  RH  042%=      5-min Rain = 0
KKE1 161416Z 23009KT 14/01 A3014 RMK A01 T01360009  RH  042%=      5-min Rain = 0
KKE1 161417Z 23008KT 14/01 A3014 RMK A01 T01360009  RH  042%=      5-min Rain = 0
KKE1 161418Z 24005KT 14/01 A3014 RMK A01 T01360010  RH  042%=      5-min Rain = 0
KKE1 161419Z 23005KT 13/01 A3014 RMK A01 T01330009  RH  043%=      5-min Rain = 0
KKE1 161420Z 23005KT 13/01 A3014 RMK A01 T01310009  RH  043%=      5-min Rain = 0
KKE1 161421Z 23006KT 13/01 A3014 RMK A01 T01310009  RH  043%=      5-min Rain = 0
KKE1 161422Z 23006KT 13/01 A3014 RMK A01 T01320010  RH  043%=      5-min Rain = 0
KKE1 161423Z 23007KT 13/01 A3014 RMK A01 T01330010  RH  043%=      5-min Rain = 0
KKE1 161424Z 23004KT 13/01 A3014 RMK A01 T01330010  RH  043%=      5-min Rain = 0
KKE1 161425Z 18001KT 13/01 A3014 RMK A01 T01340010  RH  043%=      5-min Rain = 0
KKE1 161426Z 08002KT 13/01 A3014 RMK A01 T01330011  RH  043%=      5-min Rain = 0
KKE1 161427Z 07003KT 13/01 A3014 RMK A01 T01330010  RH  043%=      5-min Rain = 0
KKE1 161428Z 04003KT 13/01 A3014 RMK A01 T01310010  RH  044%=      5-min Rain = 0
KKE1 161429Z 04004KT 13/01 A3014 RMK A01 T01290009  RH  044%=      5-min Rain = 0
KKE1 161430Z 02005KT 13/01 A3014 RMK A01 T01280008  RH  044%=      5-min Rain = 0
KKE1 161431Z 03004KT 13/01 A3014 RMK A01 T01280009  RH  044%=      5-min Rain = 0
KKE1 161432Z 02004KT 13/01 A3014 RMK A01 T01290009  RH  044%=      5-min Rain = 0
KKE1 161433Z 01002KT 13/01 A3014 RMK A01 T01300010  RH  044%=      5-min Rain = 0
KKE1 161434Z 04002KT 13/01 A3014 RMK A01 T01310010  RH  044%=      5-min Rain = 0
KKE1 161435Z 01002KT 13/01 A3014 RMK A01 T01340011  RH  043%=      5-min Rain = 0
KKE1 161436Z 04002KT 14/01 A3014 RMK A01 T01360011  RH  043%=      5-min Rain = 0
KKE1 161437Z 02001KT 14/01 A3014 RMK A01 T01380013  RH  042%=      5-min Rain = 0
KKE1 161438Z 35002KT 14/01 A3014 RMK A01 T01410013  RH  042%=      5-min Rain = 0
KKE1 161439Z 25001KT 14/01 A3014 RMK A01 T01430013  RH  041%=      5-min Rain = 0
KKE1 161440Z 21002KT 15/01 A3014 RMK A01 T01450013  RH  041%=      5-min Rain = 0
KKE1 161441Z 22001KT 15/01 A3014 RMK A01 T01470014  RH  040%=      5-min Rain = 0
KKE1 161442Z 28003KT 15/01 A3014 RMK A01 T01490013  RH  040%=      5-min Rain = 0
KKE1 161443Z 24004KT 15/01 A3014 RMK A01 T01500014  RH  040%=      5-min Rain = 0
KKE1 161444Z 27003KT 15/02 A3014 RMK A01 T01510016  RH  040%=      5-min Rain = 0
KKE1 161445Z 20003KT 15/02 A3014 RMK A01 T01530017  RH  040%=      5-min Rain = 0
KKE1 161446Z 21004KT 16/02 A3014 RMK A01 T01550017  RH  039%=      5-min Rain = 0
KKE1 161447Z 20006KT 16/02 A3014 RMK A01 T01570017  RH  039%=      5-min Rain = 0
KKE1 161448Z 21007KT 16/02 A3014 RMK A01 T01580017  RH  039%=      5-min Rain = 0
KKE1 161449Z 21005KT 16/02 A3014 RMK A01 T01580017  RH  038%=      5-min Rain = 0
KKE1 161450Z 20004KT 16/02 A3014 RMK A01 T01600019  RH  039%=      5-min Rain = 0
KKE1 161451Z 21003KT 16/02 A3014 RMK A01 T01610019  RH  038%=      5-min Rain = 0
KKE1 161452Z 20005KT 16/02 A3014 RMK A01 T01620019  RH  038%=      5-min Rain = 0
KKE1 161453Z 20006KT 16/02 A3014 RMK A01 T01630019  RH  038%=      5-min Rain = 0
KKE1 161454Z 21005KT 16/02 A3014 RMK A01 T01640018  RH  037%=      5-min Rain = 0
KKE1 161455Z 20005KT 16/02 A3014 RMK A01 T01640019  RH  038%=      5-min Rain = 0
KKE1 161456Z 21005KT 17/02 A3014 RMK A01 T01650019  RH  037%=      5-min Rain = 0
KKE1 161457Z 21005KT 17/02 A3014 RMK A01 T01650020  RH  037%=      5-min Rain = 0
KKE1 161458Z 20004KT 17/02 A3014 RMK A01 T01660019  RH  037%=      5-min Rain = 0
KKE1 161459Z 19004KT 17/02 A3014 RMK A01 T01660020  RH  037%=      5-min Rain = 0
KKE1 161500Z 20004KT 17/02 A3014 RMK A01 T01680022  RH  037%=      5-min Rain = 0
KKE1 161501Z 21008KT 17/02 A3014 RMK A01 T01700022  RH  037%=      5-min Rain = 0
KKE1 161502Z 22005KT 17/02 A3014 RMK A01 T01700021  RH  037%=      5-min Rain = 0
KKE1 161503Z 22006KT 17/02 A3014 RMK A01 T01700021  RH  037%=      5-min Rain = 0
KKE1 161504Z 21008KT 17/02 A3014 RMK A01 T01700020  RH  036%=      5-min Rain = 0
KKE1 161505Z 20006KT 17/02 A3014 RMK A01 T01700019  RH  036%=      5-min Rain = 0
KKE1 161506Z 20012KT 17/02 A3014 RMK A01 T01700020  RH  036%=      5-min Rain = 0
KKE1 161507Z 20010KT 17/02 A3014 RMK A01 T01700020  RH  036%=      5-min Rain = 0
KKE1 161508Z 18010KT 17/02 A3014 RMK A01 T01700017  RH  036%=      5-min Rain = 0
KKE1 161509Z 19005KT 17/02 A3014 RMK A01 T01700016  RH  035%=      5-min Rain = 0
KKE1 161510Z 19006KT 17/02 A3014 RMK A01 T01700017  RH  036%=      5-min Rain = 0
KKE1 161511Z 21010KT 17/02 A3014 RMK A01 T01700017  RH  036%=      5-min Rain = 0
KKE1 161512Z 19009KT 17/02 A3014 RMK A01 T01700017  RH  036%=      5-min Rain = 0
KKE1 161513Z 19007KT 17/02 A3014 RMK A01 T01690016  RH  036%=      5-min Rain = 0
KKE1 161514Z 20007KT 17/02 A3014 RMK A01 T01680019  RH  037%=      5-min Rain = 0
KKE1 161515Z 22007KT 17/02 A3014 RMK A01 T01690020  RH  037%=      5-min Rain = 0
KKE1 161516Z 22008KT 17/02 A3014 RMK A01 T01670020  RH  037%=      5-min Rain = 0
KKE1 161517Z 22009KT 17/02 A3014 RMK A01 T01660020  RH  037%=      5-min Rain = 0
KKE1 161518Z 22008KT 17/02 A3014 RMK A01 T01660020  RH  038%=      5-min Rain = 0
KKE1 161519Z 22008KT 17/02 A3014 RMK A01 T01650020  RH  038%=      5-min Rain = 0
KKE1 161520Z 23010KT 17/02 A3014 RMK A01 T01650021  RH  038%=      5-min Rain = 0
KKE1 161521Z 23009KT 17/02 A3014 RMK A01 T01650020  RH  038%=      5-min Rain = 0
KKE1 161522Z 22008KT 16/02 A3014 RMK A01 T01640021  RH  038%=      5-min Rain = 0
KKE1 161523Z 21008KT 16/02 A3014 RMK A01 T01640021  RH  038%=      5-min Rain = 0
KKE1 161524Z 23008KT 17/02 A3014 RMK A01 T01650021  RH  038%=      5-min Rain = 0
KKE1 161525Z 23006KT 17/02 A3014 RMK A01 T01650021  RH  038%=      5-min Rain = 0
KKE1 161526Z 22007KT 17/02 A3014 RMK A01 T01660022  RH  038%=      5-min Rain = 0
KKE1 161527Z 23006KT 17/02 A3014 RMK A01 T01670022  RH  038%=      5-min Rain = 0
KKE1 161528Z 22008KT 17/02 A3014 RMK A01 T01680022  RH  037%=      5-min Rain = 0
KKE1 161529Z 23009KT 17/02 A3014 RMK A01 T01690022  RH  037%=      5-min Rain = 0
KKE1 161530Z 23010KT 17/02 A3014 RMK A01 T01690022  RH  037%=      5-min Rain = 0
KKE1 161531Z 23011KT 17/02 A3014 RMK A01 T01700022  RH  037%=      5-min Rain = 0
KKE1 161532Z 24010KT 17/02 A3014 RMK A01 T01700022  RH  037%=      5-min Rain = 0
KKE1 161533Z 23009KT 17/02 A3014 RMK A01 T01710023  RH  037%=      5-min Rain = 0
KKE1 161534Z 22009KT 17/02 A3014 RMK A01 T01720022  RH  037%=      5-min Rain = 0
KKE1 161535Z 26007KT 17/02 A3014 RMK A01 T01720022  RH  037%=      5-min Rain = 0
KKE1 161536Z 26007KT 17/02 A3014 RMK A01 T01700023  RH  037%=      5-min Rain = 0
KKE1 161537Z 25008KT 17/02 A3014 RMK A01 T01690022  RH  037%=      5-min Rain = 0
KKE1 161538Z 25008KT 17/02 A3014 RMK A01 T01670021  RH  037%=      5-min Rain = 0
KKE1 161539Z 26008KT 17/02 A3014 RMK A01 T01670023  RH  038%=      5-min Rain = 0
KKE1 161540Z 24008KT 17/02 A3014 RMK A01 T01680023  RH  038%=      5-min Rain = 0
KKE1 161541Z 25008KT 17/02 A3014 RMK A01 T01670022  RH  038%=      5-min Rain = 0
KKE1 161542Z 26009KT 17/02 A3014 RMK A01 T01650022  RH  038%=      5-min Rain = 0
KKE1 161543Z 26008KT 16/02 A3014 RMK A01 T01630021  RH  038%=      5-min Rain = 0
KKE1 161544Z 27007KT 16/02 A3015 RMK A01 T01620021  RH  039%=      5-min Rain = 0
KKE1 161545Z 27007KT 16/02 A3015 RMK A01 T01600021  RH  039%=      5-min Rain = 0
KKE1 161546Z 27007KT 16/02 A3015 RMK A01 T01580020  RH  039%=      5-min Rain = 0
KKE1 161547Z 25010KT 16/02 A3015 RMK A01 T01570020  RH  040%=      5-min Rain = 0
KKE1 161548Z 25011KT 16/02 A3015 RMK A01 T01560019  RH  040%=      5-min Rain = 0
KKE1 161549Z 25009KT 16/02 A3015 RMK A01 T01550020  RH  040%=      5-min Rain = 0
KKE1 161550Z 25007KT 16/02 A3015 RMK A01 T01550020  RH  040%=      5-min Rain = 0
KKE1 161551Z 26008KT 16/02 A3015 RMK A01 T01560021  RH  040%=      5-min Rain = 0
KKE1 161552Z 25007KT 16/02 A3015 RMK A01 T01570021  RH  040%=      5-min Rain = 0
KKE1 161553Z 26007KT 16/02 A3014 RMK A01 T01590022  RH  040%=      5-min Rain = 0
KKE1 161554Z 27008KT 16/02 A3015 RMK A01 T01600021  RH  039%=      5-min Rain = 0
KKE1 161555Z 27009KT 16/02 A3015 RMK A01 T01580020  RH  039%=      5-min Rain = 0
KKE1 161556Z 26008KT 16/02 A3015 RMK A01 T01560020  RH  040%=      5-min Rain = 0
KKE1 161557Z 26009KT 16/02 A3015 RMK A01 T01560020  RH  040%=      5-min Rain = 0
KKE1 161558Z 26009KT 16/02 A3015 RMK A01 T01550020  RH  040%=      5-min Rain = 0
KKE1 161559Z 26009KT 16/02 A3015 RMK A01 T01550021  RH  040%=      5-min Rain = 0
KKE1 161600Z 26008KT 16/02 A3015 RMK A01 T01550021  RH  040%=      5-min Rain = 0
KKE1 161601Z 26007KT 15/02 A3015 RMK A01 T01540021  RH  041%=      5-min Rain = 0
KKE1 161602Z 26008KT 16/02 A3015 RMK A01 T01560023  RH  041%=      5-min Rain = 0
KKE1 161603Z 26010KT 16/02 A3014 RMK A01 T01580023  RH  040%=      5-min Rain = 0
KKE1 161604Z 26009KT 16/02 A3014 RMK A01 T01600024  RH  040%=      5-min Rain = 0
KKE1 161605Z 26008KT 16/02 A3014 RMK A01 T01600023  RH  040%=      5-min Rain = 0
KKE1 161606Z 25008KT 16/02 A3014 RMK A01 T01600023  RH  040%=      5-min Rain = 0
KKE1 161607Z 26009KT 16/02 A3014 RMK A01 T01600023  RH  040%=      5-min Rain = 0
KKE1 161608Z 26008KT 16/02 A3014 RMK A01 T01610024  RH  040%=      5-min Rain = 0
KKE1 161609Z 25006KT 16/03 A3014 RMK A01 T01610025  RH  040%=      5-min Rain = 0
KKE1 161610Z 25007KT 16/03 A3014 RMK A01 T01630026  RH  040%=      5-min Rain = 0
KKE1 161611Z 26008KT 16/03 A3014 RMK A01 T01640025  RH  039%=      5-min Rain = 0
KKE1 161612Z 25010KT 16/03 A3014 RMK A01 T01640025  RH  039%=      5-min Rain = 0
KKE1 161613Z 25009KT 16/02 A3014 RMK A01 T01630024  RH  039%=      5-min Rain = 0
KKE1 161614Z 25009KT 16/03 A3014 RMK A01 T01630025  RH  039%=      5-min Rain = 0
KKE1 161615Z 26009KT 16/03 A3014 RMK A01 T01640025  RH  039%=      5-min Rain = 0
KKE1 161616Z 26008KT 17/03 A3014 RMK A01 T01650025  RH  039%=      5-min Rain = 0
KKE1 161617Z 26007KT 17/03 A3014 RMK A01 T01660026  RH  039%=      5-min Rain = 0
KKE1 161618Z 26007KT 17/03 A3014 RMK A01 T01680027  RH  039%=      5-min Rain = 0
KKE1 161619Z 27009KT 17/03 A3014 RMK A01 T01700027  RH  038%=      5-min Rain = 0
KKE1 161620Z 27009KT 17/03 A3014 RMK A01 T01710026  RH  038%=      5-min Rain = 0
KKE1 161621Z 25008KT 17/03 A3014 RMK A01 T01700025  RH  038%=      5-min Rain = 0
KKE1 161622Z 26007KT 17/03 A3014 RMK A01 T01690027  RH  038%=      5-min Rain = 0
KKE1 161623Z 26006KT 17/03 A3014 RMK A01 T01710029  RH  038%=      5-min Rain = 0
KKE1 161624Z 26008KT 18/03 A3014 RMK A01 T01750029  RH  038%=      5-min Rain = 0
KKE1 161625Z 25007KT 18/03 A3014 RMK A01 T01780030  RH  037%=      5-min Rain = 0
KKE1 161626Z 26008KT 18/03 A3014 RMK A01 T01790029  RH  037%=      5-min Rain = 0
KKE1 161627Z 25008KT 18/03 A3014 RMK A01 T01800029  RH  037%=      5-min Rain = 0
KKE1 161628Z 27006KT 18/03 A3014 RMK A01 T01800028  RH  036%=      5-min Rain = 0
KKE1 161629Z 25006KT 18/03 A3014 RMK A01 T01790029  RH  037%=      5-min Rain = 0
KKE1 161630Z 23010G15KT 18/03 A3014 RMK A01 T01800029  RH  037%=      5-min Rain = 0
KKE1 161631Z 22010KT 18/03 A3014 RMK A01 T01810027  RH  036%=      5-min Rain = 0
KKE1 161632Z 22009KT 18/03 A3014 RMK A01 T01800028  RH  036%=      5-min Rain = 0
KKE1 161633Z 24008G13KT 18/03 A3014 RMK A01 T01810028  RH  036%=      5-min Rain = 0
KKE1 161634Z 25011G16KT 18/03 A3013 RMK A01 T01830030  RH  036%=      5-min Rain = 0
KKE1 161635Z 25012KT 19/03 A3013 RMK A01 T01850030  RH  036%=      5-min Rain = 0
KKE1 161636Z 25012KT 19/03 A3013 RMK A01 T01860031  RH  036%=      5-min Rain = 0
KKE1 161637Z 25012KT 19/03 A3013 RMK A01 T01860030  RH  035%=      5-min Rain = 0
KKE1 161638Z 25013KT 19/03 A3013 RMK A01 T01870031  RH  036%=      5-min Rain = 0
KKE1 161639Z 25011KT 19/03 A3013 RMK A01 T01860031  RH  036%=      5-min Rain = 0
KKE1 161640Z 25009KT 19/03 A3013 RMK A01 T01850031  RH  036%=      5-min Rain = 0
KKE1 161641Z 24011KT 19/03 A3013 RMK A01 T01870032  RH  036%=      5-min Rain = 0
KKE1 161642Z 24009KT 19/03 A3013 RMK A01 T01880031  RH  035%=      5-min Rain = 0
KKE1 161643Z 25010KT 19/03 A3013 RMK A01 T01880031  RH  035%=      5-min Rain = 0
KKE1 161644Z 25013KT 19/03 A3013 RMK A01 T01900031  RH  035%=      5-min Rain = 0
KKE1 161645Z 25010KT 19/03 A3013 RMK A01 T01890030  RH  035%=      5-min Rain = 0
KKE1 161646Z 23011KT 19/03 A3013 RMK A01 T01900031  RH  035%=      5-min Rain = 0
KKE1 161647Z 25013KT 19/03 A3013 RMK A01 T01900032  RH  035%=      5-min Rain = 0
KKE1 161648Z 25013KT 19/03 A3013 RMK A01 T01900031  RH  035%=      5-min Rain = 0
KKE1 161649Z 24012KT 19/03 A3013 RMK A01 T01880030  RH  035%=      5-min Rain = 0
KKE1 161650Z 25012KT 19/03 A3013 RMK A01 T01880031  RH  035%=      5-min Rain = 0
KKE1 161651Z 24010KT 19/03 A3013 RMK A01 T01880030  RH  035%=      5-min Rain = 0
KKE1 161652Z 25008G13KT 19/03 A3013 RMK A01 T01880032  RH  035%=      5-min Rain = 0
KKE1 161653Z 24011KT 19/03 A3013 RMK A01 T01910033  RH  035%=      5-min Rain = 0
KKE1 161654Z 24010KT 19/03 A3013 RMK A01 T01930031  RH  034%=      5-min Rain = 0
KKE1 161655Z 23011KT 19/03 A3013 RMK A01 T01930029  RH  034%=      5-min Rain = 0
KKE1 161656Z 23014KT 19/03 A3013 RMK A01 T01910028  RH  034%=      5-min Rain = 0
KKE1 161657Z 25012G17KT 19/03 A3013 RMK A01 T01890029  RH  034%=      5-min Rain = 0
KKE1 161658Z 24013KT 19/03 A3013 RMK A01 T01890029  RH  034%=      5-min Rain = 0
KKE1 161659Z 24015KT 19/03 A3013 RMK A01 T01910028  RH  034%=      5-min Rain = 0
KKE1 161700Z 24016KT 19/03 A3013 RMK A01 T01910027  RH  034%=      5-min Rain = 0
KKE1 161701Z 24014KT 19/03 A3013 RMK A01 T01910028  RH  034%=      5-min Rain = 0
KKE1 161702Z 24014KT 19/03 A3013 RMK A01 T01910028  RH  034%=      5-min Rain = 0
KKE1 161703Z 24013KT 19/03 A3013 RMK A01 T01920028  RH  034%=      5-min Rain = 0
KKE1 161704Z 23014KT 19/03 A3013 RMK A01 T01920028  RH  034%=      5-min Rain = 0
KKE1 161705Z 23014KT 19/03 A3012 RMK A01 T01910027  RH  034%=      5-min Rain = 0
KKE1 161706Z 22012KT 19/03 A3012 RMK A01 T01890027  RH  034%=      5-min Rain = 0
KKE1 161707Z 25010G15KT 19/03 A3012 RMK A01 T01890029  RH  034%=      5-min Rain = 0
KKE1 161708Z 25014KT 19/03 A3012 RMK A01 T01930032  RH  034%=      5-min Rain = 0
KKE1 161709Z 24011KT 20/03 A3012 RMK A01 T01950030  RH  034%=      5-min Rain = 0
KKE1 161710Z 25011KT 20/03 A3012 RMK A01 T01970031  RH  033%=      5-min Rain = 0
KKE1 161711Z 24012KT 20/03 A3012 RMK A01 T01980030  RH  033%=      5-min Rain = 0
KKE1 161712Z 23013KT 20/03 A3012 RMK A01 T01980030  RH  033%=      5-min Rain = 0
KKE1 161713Z 25011G16KT 20/03 A3012 RMK A01 T01970032  RH  033%=      5-min Rain = 0
KKE1 161714Z 25014KT 20/03 A3012 RMK A01 T01980031  RH  033%=      5-min Rain = 0
KKE1 161715Z 25011G17KT 20/03 A3012 RMK A01 T01970031  RH  033%=      5-min Rain = 0
KKE1 161716Z 25014G19KT 20/03 A3012 RMK A01 T01960031  RH  033%=      5-min Rain = 0
KKE1 161717Z 24012G18KT 20/03 A3012 RMK A01 T01950030  RH  033%=      5-min Rain = 0
KKE1 161718Z 24010KT 20/03 A3012 RMK A01 T01960031  RH  034%=      5-min Rain = 0
KKE1 161719Z 25013KT 20/03 A3012 RMK A01 T01990032  RH  033%=      5-min Rain = 0
KKE1 161720Z 25013KT 20/03 A3012 RMK A01 T01990032  RH  033%=      5-min Rain = 0
KKE1 161721Z 25013KT 20/03 A3012 RMK A01 T01980032  RH  033%=      5-min Rain = 0
KKE1 161722Z 25012G18KT 20/03 A3012 RMK A01 T01980031  RH  033%=      5-min Rain = 0
KKE1 161723Z 25014KT 20/03 A3011 RMK A01 T01980032  RH  033%=      5-min Rain = 0
KKE1 161724Z 25013G18KT 20/03 A3011 RMK A01 T01990032  RH  033%=      5-min Rain = 0
KKE1 161725Z 25013KT 20/03 A3011 RMK A01 T01980030  RH  033%=      5-min Rain = 0
KKE1 161726Z 25014KT 20/03 A3011 RMK A01 T01970031  RH  033%=      5-min Rain = 0
KKE1 161727Z 25015KT 20/03 A3011 RMK A01 T01970031  RH  033%=      5-min Rain = 0
KKE1 161728Z 25014KT 20/03 A3011 RMK A01 T01980032  RH  033%=      5-min Rain = 0
KKE1 161729Z 24013G18KT 20/03 A3011 RMK A01 T01990032  RH  033%=      5-min Rain = 0
KKE1 161730Z 25013KT 20/03 A3011 RMK A01 T02000032  RH  033%=      5-min Rain = 0
KKE1 161731Z 25017KT 20/03 A3011 RMK A01 T02000032  RH  033%=      5-min Rain = 0
KKE1 161732Z 25017KT 20/03 A3011 RMK A01 T01980031  RH  033%=      5-min Rain = 0
KKE1 161733Z 25013G18KT 20/03 A3011 RMK A01 T01980031  RH  033%=      5-min Rain = 0
KKE1 161734Z 25016KT 20/03 A3011 RMK A01 T01980031  RH  033%=      5-min Rain = 0
KKE1 161735Z 25012KT 20/03 A3011 RMK A01 T01980032  RH  033%=      5-min Rain = 0
KKE1 161736Z 25013KT 20/03 A3011 RMK A01 T01990033  RH  033%=      5-min Rain = 0
KKE1 161737Z 25017KT 20/03 A3011 RMK A01 T02000032  RH  033%=      5-min Rain = 0
KKE1 161738Z 25013KT 20/03 A3011 RMK A01 T01980031  RH  033%=      5-min Rain = 0
KKE1 161739Z 25014KT 20/03 A3011 RMK A01 T01970032  RH  033%=      5-min Rain = 0
KKE1 161740Z 25014KT 20/03 A301 RMK A01 T02010033  RH  033%=      5-min Rain = 0
KKE1 161741Z 25013KT 20/03 A301 RMK A01 T02020032  RH  032%=      5-min Rain = 0
KKE1 161742Z 24015KT 20/03 A301 RMK A01 T02030032  RH  032%=      5-min Rain = 0
KKE1 161743Z 24011G16KT 20/03 A301 RMK A01 T02030031  RH  032%=      5-min Rain = 0
KKE1 161744Z 25015KT 20/03 A301 RMK A01 T02030034  RH  033%=      5-min Rain = 0
KKE1 161745Z 24014KT 20/03 A301 RMK A01 T02030032  RH  032%=      5-min Rain = 0
KKE1 161746Z 24015KT 20/03 A301 RMK A01 T02020031  RH  032%=      5-min Rain = 0
KKE1 161747Z 25015KT 20/03 A301 RMK A01 T02010030  RH  032%=      5-min Rain = 0
KKE1 161748Z 24014KT 20/03 A301 RMK A01 T02000031  RH  033%=      5-min Rain = 0
KKE1 161749Z 24010KT 20/03 A301 RMK A01 T02000033  RH  033%=      5-min Rain = 0
KKE1 161750Z 24010G15KT 20/04 A301 RMK A01 T02030035  RH  033%=      5-min Rain = 0
KKE1 161751Z 24015KT 21/04 A301 RMK A01 T02050036  RH  033%=      5-min Rain = 0
KKE1 161752Z 25012G17KT 21/04 A301 RMK A01 T02050035  RH  033%=      5-min Rain = 0
KKE1 161753Z 25014KT 20/03 A301 RMK A01 T02040034  RH  033%=      5-min Rain = 0
KKE1 161754Z 24015KT 20/03 A301 RMK A01 T02030034  RH  033%=      5-min Rain = 0
KKE1 161755Z 25014KT 20/03 A301 RMK A01 T02020033  RH  033%=      5-min Rain = 0
KKE1 161756Z 24014KT 20/03 A301 RMK A01 T02020032  RH  033%=      5-min Rain = 0
KKE1 161757Z 25013KT 20/03 A301 RMK A01 T02010032  RH  033%=      5-min Rain = 0
KKE1 161758Z 23012KT 20/03 A301 RMK A01 T02020032  RH  033%=      5-min Rain = 0
KKE1 161759Z 23014KT 20/03 A301 RMK A01 T02010031  RH  032%=      5-min Rain = 0
KKE1 161800Z 23012KT 20/03 A301 RMK A01 T01980030  RH  033%=      5-min Rain = 0
KKE1 161801Z 24011KT 20/03 A301 RMK A01 T01980032  RH  033%=      5-min Rain = 0
KKE1 161802Z 24012KT 20/03 A301 RMK A01 T02010032  RH  033%=      5-min Rain = 0
KKE1 161803Z 24011KT 20/03 A301 RMK A01 T02020031  RH  032%=      5-min Rain = 0
KKE1 161804Z 26011KT 20/03 A301 RMK A01 T02030031  RH  032%=      5-min Rain = 0
KKE1 161805Z 24012KT 20/03 A301 RMK A01 T02040031  RH  032%=      5-min Rain = 0
KKE1 161806Z 25010G16KT 20/03 A301 RMK A01 T02030031  RH  032%=      5-min Rain = 0
KKE1 161807Z 25013KT 20/03 A301 RMK A01 T02030032  RH  032%=      5-min Rain = 0
KKE1 161808Z 26011KT 21/03 A301 RMK A01 T02050032  RH  032%=      5-min Rain = 0
KKE1 161809Z 25011G16KT 21/03 A301 RMK A01 T02060032  RH  032%=      5-min Rain = 0
KKE1 161810Z 25015KT 21/03 A301 RMK A01 T02060031  RH  031%=      5-min Rain = 0
KKE1 161811Z 26016KT 21/03 A301 RMK A01 T02060030  RH  031%=      5-min Rain = 0
KKE1 161812Z 26014KT 21/03 A301 RMK A01 T02060031  RH  031%=      5-min Rain = 0
KKE1 161813Z 24011KT 21/03 A301 RMK A01 T02070033  RH  032%=      5-min Rain = 0
KKE1 161814Z 25013KT 21/03 A301 RMK A01 T02100033  RH  031%=      5-min Rain = 0
KKE1 161815Z 25015KT 21/03 A301 RMK A01 T02100030  RH  030%=      5-min Rain = 0
KKE1 161816Z 26015KT 21/03 A301 RMK A01 T02080031  RH  031%=      5-min Rain = 0
KKE1 161817Z 25013KT 21/03 A301 RMK A01 T02070027  RH  031%=      5-min Rain = 0
KKE1 161818Z 24012KT 21/03 A301 RMK A01 T02070027  RH  030%=      5-min Rain = 0
KKE1 161819Z 24011KT 21/03 A301 RMK A01 T02070025  RH  030%=      5-min Rain = 0
KKE1 161820Z 26012G17KT 21/03 A301 RMK A01 T02070027  RH  030%=      5-min Rain = 0
KKE1 161821Z 26013KT 21/03 A301 RMK A01 T02080028  RH  031%=      5-min Rain = 0
KKE1 161822Z 26012KT 21/03 A301 RMK A01 T02070027  RH  030%=      5-min Rain = 0
KKE1 161823Z 24014KT 21/03 A3009 RMK A01 T02070027  RH  030%=      5-min Rain = 0
KKE1 161824Z 26015KT 21/03 A3009 RMK A01 T02070026  RH  030%=      5-min Rain = 0
KKE1 161825Z 25011KT 21/03 A3009 RMK A01 T02050025  RH  030%=      5-min Rain = 0
KKE1 161826Z 26011G17KT 21/03 A3009 RMK A01 T02050027  RH  031%=      5-min Rain = 0
KKE1 161827Z 26012KT 21/03 A3009 RMK A01 T02070028  RH  031%=      5-min Rain = 0
KKE1 161828Z 26015KT 21/03 A3009 RMK A01 T02080028  RH  030%=      5-min Rain = 0
KKE1 161829Z 26012KT 21/03 A3009 RMK A01 T02060027  RH  030%=      5-min Rain = 0
KKE1 161830Z 26013G18KT 21/03 A3009 RMK A01 T02050028  RH  031%=      5-min Rain = 0
KKE1 161831Z 25013KT 21/03 A3009 RMK A01 T02050027  RH  031%=      5-min Rain = 0
KKE1 161832Z 26013G18KT 21/02 A3009 RMK A01 T02050024  RH  030%=      5-min Rain = 0
KKE1 161833Z 26017KT 21/03 A3009 RMK A01 T02060026  RH  030%=      5-min Rain = 0
KKE1 161834Z 26014G19KT 20/03 A3009 RMK A01 T02040029  RH  031%=      5-min Rain = 0
KKE1 161835Z 25011KT 20/03 A3009 RMK A01 T02040029  RH  032%=      5-min Rain = 0
KKE1 161836Z 25016KT 21/03 A3009 RMK A01 T02050028  RH  031%=      5-min Rain = 0
KKE1 161837Z 26016KT 21/03 A3009 RMK A01 T02060026  RH  030%=      5-min Rain = 0
KKE1 161838Z 25016KT 21/03 A3009 RMK A01 T02050028  RH  031%=      5-min Rain = 0
KKE1 161839Z 25013KT 20/03 A3009 RMK A01 T02040027  RH  031%=      5-min Rain = 0
KKE1 161840Z 25014KT 20/03 A3009 RMK A01 T02040025  RH  030%=      5-min Rain = 0
KKE1 161841Z 25015KT 20/03 A3009 RMK A01 T02040026  RH  031%=      5-min Rain = 0
KKE1 161842Z 26015KT 20/03 A3009 RMK A01 T02040029  RH  031%=      5-min Rain = 0
KKE1 161843Z 26015KT 20/03 A3009 RMK A01 T02040031  RH  032%=      5-min Rain = 0
KKE1 161844Z 26016KT 20/03 A3009 RMK A01 T02040031  RH  032%=      5-min Rain = 0
KKE1 161845Z 26015KT 20/03 A3009 RMK A01 T02040031  RH  032%=      5-min Rain = 0
KKE1 161846Z 26015KT 21/03 A3009 RMK A01 T02050029  RH  031%=      5-min Rain = 0
KKE1 161847Z 26011G17KT 21/03 A3009 RMK A01 T02050029  RH  031%=      5-min Rain = 0
KKE1 161848Z 26012KT 21/03 A3009 RMK A01 T02050031  RH  031%=      5-min Rain = 0
KKE1 161849Z 24013KT 21/03 A3008 RMK A01 T02070033  RH  032%=      5-min Rain = 0
KKE1 161850Z 25015G20KT 21/03 A3008 RMK A01 T02070033  RH  032%=      5-min Rain = 0
KKE1 161851Z 23013KT 21/03 A3008 RMK A01 T02060033  RH  032%=      5-min Rain = 0
KKE1 161852Z 24013KT 21/03 A3008 RMK A01 T02050032  RH  032%=      5-min Rain = 0
KKE1 161853Z 24014KT 20/03 A3008 RMK A01 T02030032  RH  032%=      5-min Rain = 0
KKE1 161854Z 24012KT 20/03 A3008 RMK A01 T02020032  RH  032%=      5-min Rain = 0
KKE1 161855Z 23012KT 20/03 A3008 RMK A01 T02020032  RH  032%=      5-min Rain = 0
KKE1 161856Z 24014KT 20/03 A3008 RMK A01 T02030032  RH  032%=      5-min Rain = 0
KKE1 161857Z 25016KT 20/03 A3008 RMK A01 T02020030  RH  032%=      5-min Rain = 0
KKE1 161858Z 25013KT 20/03 A3008 RMK A01 T02000030  RH  032%=      5-min Rain = 0
KKE1 161859Z 24012KT 20/03 A3008 RMK A01 T02000031  RH  033%=      5-min Rain = 0
KKE1 161900Z 25011KT 20/03 A3008 RMK A01 T01990032  RH  033%=      5-min Rain = 0
KKE1 161901Z 24010G15KT 20/03 A3008 RMK A01 T01990034  RH  033%=      5-min Rain = 0
KKE1 161902Z 24013KT 20/03 A3008 RMK A01 T02000033  RH  033%=      5-min Rain = 0
KKE1 161903Z 23014KT 20/03 A3008 RMK A01 T02000032  RH  033%=      5-min Rain = 0
KKE1 161904Z 23015KT 20/03 A3008 RMK A01 T01970031  RH  033%=      5-min Rain = 0
KKE1 161905Z 24014KT 20/03 A3008 RMK A01 T01960030  RH  033%=      5-min Rain = 0
KKE1 161906Z 24015KT 20/03 A3008 RMK A01 T01960031  RH  034%=      5-min Rain = 0
KKE1 161907Z 25012G17KT 20/03 A3008 RMK A01 T01950032  RH  034%=      5-min Rain = 0
KKE1 161908Z 25011G17KT 20/03 A3008 RMK A01 T01960033  RH  034%=      5-min Rain = 0
KKE1 161909Z 24013KT 20/03 A3008 RMK A01 T01970033  RH  034%=      5-min Rain = 0
KKE1 161910Z 24012KT 20/03 A3008 RMK A01 T01970034  RH  034%=      5-min Rain = 0
KKE1 161911Z 23013KT 20/04 A3008 RMK A01 T01960035  RH  034%=      5-min Rain = 0
KKE1 161912Z 24013KT 20/04 A3008 RMK A01 T01960035  RH  035%=      5-min Rain = 0
KKE1 161913Z 24012KT 20/04 A3008 RMK A01 T01960035  RH  035%=      5-min Rain = 0
KKE1 161914Z 24010KT 20/04 A3008 RMK A01 T01980036  RH  034%=      5-min Rain = 0
KKE1 161915Z 25012KT 20/04 A3007 RMK A01 T02010037  RH  034%=      5-min Rain = 0
KKE1 161916Z 24012KT 20/04 A3007 RMK A01 T02030038  RH  034%=      5-min Rain = 0
KKE1 161917Z 26014KT 20/04 A3007 RMK A01 T02020037  RH  034%=      5-min Rain = 0
KKE1 161918Z 25013G18KT 20/04 A3007 RMK A01 T02010036  RH  034%=      5-min Rain = 0
KKE1 161919Z 25012KT 20/04 A3007 RMK A01 T02000038  RH  034%=      5-min Rain = 0
KKE1 161920Z 24011G16KT 20/04 A3007 RMK A01 T02030038  RH  034%=      5-min Rain = 0
KKE1 161921Z 23013KT 20/04 A3007 RMK A01 T02040037  RH  033%=      5-min Rain = 0
KKE1 161922Z 24013KT 20/04 A3007 RMK A01 T02020036  RH  033%=      5-min Rain = 0
KKE1 161923Z 25015KT 20/04 A3007 RMK A01 T02000038  RH  034%=      5-min Rain = 0
KKE1 161924Z 26014KT 20/04 A3007 RMK A01 T01990038  RH  035%=      5-min Rain = 0
KKE1 161925Z 25014KT 20/04 A3007 RMK A01 T01980037  RH  035%=      5-min Rain = 0
KKE1 161926Z 25011KT 20/04 A3007 RMK A01 T01980038  RH  035%=      5-min Rain = 0
KKE1 161927Z 24013KT 20/04 A3007 RMK A01 T01990039  RH  035%=      5-min Rain = 0
KKE1 161928Z 24013KT 20/04 A3006 RMK A01 T02000038  RH  034%=      5-min Rain = 0
KKE1 161929Z 25011KT 20/04 A3006 RMK A01 T02000039  RH  034%=      5-min Rain = 0
KKE1 161930Z 24011KT 20/04 A3006 RMK A01 T02020039  RH  034%=      5-min Rain = 0
KKE1 161931Z 25011KT 20/04 A3006 RMK A01 T02030039  RH  034%=      5-min Rain = 0
KKE1 161932Z 25011KT 20/04 A3006 RMK A01 T02030040  RH  034%=      5-min Rain = 0
KKE1 161933Z 25015G20KT 20/04 A3006 RMK A01 T02040039  RH  034%=      5-min Rain = 0
KKE1 161934Z 25015KT 20/04 A3006 RMK A01 T02000037  RH  034%=      5-min Rain = 0
KKE1 161935Z 24012KT 20/04 A3006 RMK A01 T01980037  RH  035%=      5-min Rain = 0
KKE1 161936Z 25013G18KT 20/04 A3006 RMK A01 T01970038  RH  035%=      5-min Rain = 0
KKE1 161937Z 25013KT 20/04 A3006 RMK A01 T01970038  RH  035%=      5-min Rain = 0
KKE1 161938Z 25013KT 20/04 A3006 RMK A01 T01980038  RH  035%=      5-min Rain = 0
KKE1 161939Z 24013KT 20/04 A3006 RMK A01 T01970038  RH  035%=      5-min Rain = 0
KKE1 161940Z 24012KT 20/04 A3006 RMK A01 T01970037  RH  035%=      5-min Rain = 0
KKE1 161941Z 24012KT 20/04 A3006 RMK A01 T01970038  RH  035%=      5-min Rain = 0
KKE1 161942Z 23010KT 20/04 A3006 RMK A01 T01970038  RH  035%=      5-min Rain = 0
KKE1 161943Z 24011KT 20/04 A3006 RMK A01 T01970039  RH  035%=      5-min Rain = 0
KKE1 161944Z 23012KT 20/04 A3006 RMK A01 T01990039  RH  035%=      5-min Rain = 0
KKE1 161945Z 23014KT 20/04 A3006 RMK A01 T01990037  RH  034%=      5-min Rain = 0
KKE1 161946Z 23010G16KT 20/04 A3006 RMK A01 T01990037  RH  034%=      5-min Rain = 0
KKE1 161947Z 23012KT 20/04 A3006 RMK A01 T01990037  RH  034%=      5-min Rain = 0
KKE1 161948Z 23010G15KT 20/04 A3006 RMK A01 T01990037  RH  034%=      5-min Rain = 0
KKE1 161949Z 22011KT 20/04 A3006 RMK A01 T02000037  RH  034%=      5-min Rain = 0
KKE1 161950Z 20013KT 20/04 A3006 RMK A01 T02000037  RH  034%=      5-min Rain = 0
KKE1 161951Z 21014KT 20/04 A3006 RMK A01 T02000036  RH  034%=      5-min Rain = 0
KKE1 161952Z 21012KT 20/04 A3006 RMK A01 T02010036  RH  034%=      5-min Rain = 0
KKE1 161953Z 22011KT 20/04 A3006 RMK A01 T02010037  RH  034%=      5-min Rain = 0
KKE1 161954Z 22011KT 20/04 A3006 RMK A01 T02000036  RH  034%=      5-min Rain = 0
KKE1 161955Z 22010KT 20/04 A3006 RMK A01 T01980036  RH  034%=      5-min Rain = 0
KKE1 161956Z 22010G16KT 20/04 A3006 RMK A01 T01980036  RH  034%=      5-min Rain = 0
KKE1 161957Z 22013KT 20/03 A3006 RMK A01 T01970034  RH  034%=      5-min Rain = 0
KKE1 161958Z 21011G16KT 20/03 A3006 RMK A01 T01960034  RH  034%=      5-min Rain = 0
KKE1 161959Z 22011KT 20/04 A3006 RMK A01 T01990035  RH  034%=      5-min Rain = 0
KKE1 162000Z 22008KT 20/04 A3005 RMK A01 T02010035  RH  033%=      5-min Rain = 0
KKE1 162001Z 23010KT 20/04 A3005 RMK A01 T02000035  RH  034%=      5-min Rain = 0
KKE1 162002Z 21009G14KT 20/04 A3005 RMK A01 T01990035  RH  034%=      5-min Rain = 0
KKE1 162003Z 21013KT 20/04 A3005 RMK A01 T02000036  RH  034%=      5-min Rain = 0
KKE1 162004Z 21012KT 20/03 A3005 RMK A01 T02010034  RH  033%=      5-min Rain = 0
KKE1 162005Z 22011KT 20/03 A3005 RMK A01 T02010033  RH  033%=      5-min Rain = 0
KKE1 162006Z 23015KT 20/03 A3005 RMK A01 T02010032  RH  033%=      5-min Rain = 0
KKE1 162007Z 23012KT 20/03 A3005 RMK A01 T01980032  RH  033%=      5-min Rain = 0
KKE1 162008Z 23012KT 20/03 A3005 RMK A01 T01960032  RH  034%=      5-min Rain = 0
KKE1 162009Z 22011G16KT 20/03 A3005 RMK A01 T01960033  RH  034%=      5-min Rain = 0
KKE1 162010Z 22011KT 20/03 A3005 RMK A01 T01980034  RH  034%=      5-min Rain = 0
KKE1 162011Z 23012G17KT 20/03 A3005 RMK A01 T01990034  RH  033%=      5-min Rain = 0
KKE1 162012Z 22011KT 20/03 A3005 RMK A01 T01990031  RH  033%=      5-min Rain = 0
KKE1 162013Z 22012KT 20/03 A3005 RMK A01 T01970030  RH  033%=      5-min Rain = 0
KKE1 162014Z 21009KT 20/03 A3005 RMK A01 T01980030  RH  033%=      5-min Rain = 0
KKE1 162015Z 21010KT 20/03 A3004 RMK A01 T02010032  RH  033%=      5-min Rain = 0
KKE1 162016Z 22010KT 20/03 A3005 RMK A01 T02030032  RH  032%=      5-min Rain = 0
KKE1 162017Z 23009KT 20/03 A3005 RMK A01 T02040031  RH  032%=      5-min Rain = 0
KKE1 162018Z 21009KT 20/03 A3005 RMK A01 T02030033  RH  033%=      5-min Rain = 0
KKE1 162019Z 21010KT 20/03 A3005 RMK A01 T02040034  RH  033%=      5-min Rain = 0
KKE1 162020Z 22012G17KT 21/03 A3005 RMK A01 T02050034  RH  032%=      5-min Rain = 0
KKE1 162021Z 22010KT 20/03 A3005 RMK A01 T02020032  RH  032%=      5-min Rain = 0
KKE1 162022Z 21012KT 20/03 A3004 RMK A01 T02020032  RH  033%=      5-min Rain = 0
KKE1 162023Z 21014KT 21/03 A3004 RMK A01 T02050033  RH  032%=      5-min Rain = 0
KKE1 162024Z 22014G19KT 21/03 A3004 RMK A01 T02050031  RH  032%=      5-min Rain = 0
KKE1 162025Z 22011KT 20/03 A3004 RMK A01 T02020031  RH  032%=      5-min Rain = 0
KKE1 162026Z 21013KT 20/03 A3004 RMK A01 T02000032  RH  033%=      5-min Rain = 0
KKE1 162027Z 21010G18KT 20/03 A3004 RMK A01 T02030032  RH  032%=      5-min Rain = 0
KKE1 162028Z 23010KT 21/03 A3004 RMK A01 T02050033  RH  032%=      5-min Rain = 0
KKE1 162029Z 23012KT 21/03 A3004 RMK A01 T02070032  RH  031%=      5-min Rain = 0
KKE1 162030Z 24013G18KT 21/03 A3004 RMK A01 T02060032  RH  032%=      5-min Rain = 0
KKE1 162031Z 24012KT 21/03 A3004 RMK A01 T02060033  RH  032%=      5-min Rain = 0
KKE1 162032Z 23010KT 21/03 A3004 RMK A01 T02070033  RH  032%=      5-min Rain = 0
KKE1 162033Z 22012KT 21/03 A3004 RMK A01 T02070032  RH  031%=      5-min Rain = 0
KKE1 162034Z 23012G17KT 21/03 A3004 RMK A01 T02060032  RH  032%=      5-min Rain = 0
KKE1 162035Z 23013KT 21/03 A3004 RMK A01 T02050030  RH  032%=      5-min Rain = 0
KKE1 162036Z 23016KT 20/03 A3004 RMK A01 T02040029  RH  031%=      5-min Rain = 0
KKE1 162037Z 25016KT 20/03 A3004 RMK A01 T02040027  RH  031%=      5-min Rain = 0
KKE1 162038Z 24015G20KT 20/03 A3004 RMK A01 T02040026  RH  031%=      5-min Rain = 0
KKE1 162039Z 24013KT 20/03 A3004 RMK A01 T02030026  RH  031%=      5-min Rain = 0
KKE1 162040Z 24014KT 20/03 A3004 RMK A01 T02040027  RH  031%=      5-min Rain = 0
KKE1 162041Z 24013KT 21/03 A3004 RMK A01 T02050027  RH  031%=      5-min Rain = 0
KKE1 162042Z 24012KT 21/03 A3004 RMK A01 T02050028  RH  031%=      5-min Rain = 0
KKE1 162043Z 24011KT 21/03 A3004 RMK A01 T02060029  RH  031%=      5-min Rain = 0
KKE1 162044Z 24012KT 21/03 A3004 RMK A01 T02080029  RH  031%=      5-min Rain = 0
KKE1 162045Z 24015KT 21/03 A3004 RMK A01 T02080027  RH  030%=      5-min Rain = 0
KKE1 162046Z 23015KT 21/03 A3004 RMK A01 T02060026  RH  030%=      5-min Rain = 0
KKE1 162047Z 23016KT 20/03 A3004 RMK A01 T02040025  RH  030%=      5-min Rain = 0
KKE1 162048Z 23016KT 20/02 A3004 RMK A01 T02030024  RH  031%=      5-min Rain = 0
KKE1 162049Z 23015KT 20/02 A3004 RMK A01 T02010024  RH  031%=      5-min Rain = 0
KKE1 162050Z 24017G22KT 20/03 A3004 RMK A01 T02010025  RH  031%=      5-min Rain = 0
KKE1 162051Z 24019KT 20/02 A3004 RMK A01 T02010023  RH  031%=      5-min Rain = 0
KKE1 162052Z 24017KT 20/02 A3004 RMK A01 T02000023  RH  031%=      5-min Rain = 0
KKE1 162053Z 24015G20KT 20/03 A3004 RMK A01 T02000027  RH  032%=      5-min Rain = 0
KKE1 162054Z 24016KT 20/03 A3004 RMK A01 T02010028  RH  032%=      5-min Rain = 0
KKE1 162055Z 24016KT 20/03 A3004 RMK A01 T02030027  RH  031%=      5-min Rain = 0
KKE1 162056Z 23016KT 20/03 A3004 RMK A01 T02040027  RH  031%=      5-min Rain = 0
KKE1 162057Z 23017G22KT 20/03 A3004 RMK A01 T02020026  RH  031%=      5-min Rain = 0
KKE1 162058Z 23018KT 20/03 A3004 RMK A01 T02010027  RH  031%=      5-min Rain = 0
KKE1 162059Z 23015KT 20/03 A3004 RMK A01 T02010026  RH  031%=      5-min Rain = 0
KKE1 162100Z 25016KT 20/03 A3004 RMK A01 T02000027  RH  032%=      5-min Rain = 0
KKE1 162101Z 24017G22KT 20/03 A3003 RMK A01 T02010027  RH  031%=      5-min Rain = 0
KKE1 162102Z 23016KT 20/03 A3004 RMK A01 T02020026  RH  031%=      5-min Rain = 0
KKE1 162103Z 22017KT 20/03 A3003 RMK A01 T02020028  RH  032%=      5-min Rain = 0
KKE1 162104Z 22014KT 20/03 A3003 RMK A01 T02000029  RH  032%=      5-min Rain = 0
KKE1 162105Z 23015KT 20/03 A3003 RMK A01 T01990028  RH  032%=      5-min Rain = 0
KKE1 162106Z 24014KT 20/03 A3004 RMK A01 T01990027  RH  032%=      5-min Rain = 0
KKE1 162107Z 24017KT 20/02 A3003 RMK A01 T02030024  RH  031%=      5-min Rain = 0
KKE1 162108Z 24017KT 20/03 A3003 RMK A01 T02040025  RH  030%=      5-min Rain = 0
KKE1 162109Z 25013KT 20/03 A3003 RMK A01 T02040027  RH  031%=      5-min Rain = 0
KKE1 162110Z 25015G20KT 21/03 A3003 RMK A01 T02060026  RH  030%=      5-min Rain = 0
KKE1 162111Z 24016KT 21/02 A3003 RMK A01 T02070024  RH  030%=      5-min Rain = 0
KKE1 162112Z 24017KT 20/02 A3003 RMK A01 T02040023  RH  030%=      5-min Rain = 0
KKE1 162113Z 24017KT 20/02 A3003 RMK A01 T02000023  RH  031%=      5-min Rain = 0
KKE1 162114Z 24017G23KT 20/03 A3003 RMK A01 T01980026  RH  032%=      5-min Rain = 0
KKE1 162115Z 23014G21KT 20/03 A3003 RMK A01 T01980027  RH  032%=      5-min Rain = 0
KKE1 162116Z 22016KT 20/03 A3003 RMK A01 T01980025  RH  032%=      5-min Rain = 0
KKE1 162117Z 22019KT 20/03 A3003 RMK A01 T01950026  RH  032%=      5-min Rain = 0
KKE1 162118Z 23018KT 19/03 A3003 RMK A01 T01920027  RH  033%=      5-min Rain = 0
KKE1 162119Z 22017KT 19/03 A3003 RMK A01 T01900026  RH  034%=      5-min Rain = 0
KKE1 162120Z 23016KT 19/03 A3003 RMK A01 T01900025  RH  033%=      5-min Rain = 0
KKE1 162121Z 23016KT 19/03 A3003 RMK A01 T01890025  RH  033%=      5-min Rain = 0
KKE1 162122Z 23014KT 19/03 A3003 RMK A01 T01890026  RH  034%=      5-min Rain = 0
KKE1 162123Z 23016KT 19/03 A3003 RMK A01 T01900027  RH  034%=      5-min Rain = 0
KKE1 162124Z 23015G20KT 19/03 A3003 RMK A01 T01900027  RH  034%=      5-min Rain = 0
KKE1 162125Z 23017KT 19/03 A3003 RMK A01 T01910025  RH  033%=      5-min Rain = 0
KKE1 162126Z 24015KT 19/02 A3003 RMK A01 T01910024  RH  033%=      5-min Rain = 0
KKE1 162127Z 23015KT 19/02 A3003 RMK A01 T01920024  RH  032%=      5-min Rain = 0
KKE1 162128Z 23014KT 19/03 A3003 RMK A01 T01920025  RH  033%=      5-min Rain = 0
KKE1 162129Z 24013KT 19/03 A3003 RMK A01 T01910027  RH  034%=      5-min Rain = 0
KKE1 162130Z 25014KT 19/03 A3003 RMK A01 T01920025  RH  033%=      5-min Rain = 0
KKE1 162131Z 24014KT 19/03 A3003 RMK A01 T01920026  RH  033%=      5-min Rain = 0
KKE1 162132Z 23016KT 19/02 A3003 RMK A01 T01930023  RH  032%=      5-min Rain = 0
KKE1 162133Z 23016KT 19/02 A3003 RMK A01 T01930020  RH  032%=      5-min Rain = 0
KKE1 162134Z 24013KT 19/02 A3003 RMK A01 T01920022  RH  032%=      5-min Rain = 0
KKE1 162135Z 24013KT 19/03 A3003 RMK A01 T01930025  RH  033%=      5-min Rain = 0
KKE1 162136Z 24014KT 19/03 A3003 RMK A01 T01940026  RH  033%=      5-min Rain = 0
KKE1 162137Z 23017KT 20/03 A3003 RMK A01 T01950026  RH  032%=      5-min Rain = 0
KKE1 162138Z 23015KT 20/03 A3003 RMK A01 T01950027  RH  033%=      5-min Rain = 0
KKE1 162139Z 24015KT 20/03 A3003 RMK A01 T01950028  RH  033%=      5-min Rain = 0
KKE1 162140Z 24014KT 20/03 A3003 RMK A01 T01960027  RH  032%=      5-min Rain = 0
KKE1 162141Z 24014KT 20/03 A3003 RMK A01 T01970026  RH  032%=      5-min Rain = 0
KKE1 162142Z 24015KT 20/03 A3003 RMK A01 T01990026  RH  032%=      5-min Rain = 0
KKE1 162143Z 23012KT 20/03 A3003 RMK A01 T02000027  RH  032%=      5-min Rain = 0
KKE1 162144Z 24015KT 20/03 A3003 RMK A01 T02010027  RH  032%=      5-min Rain = 0
KKE1 162145Z 24013G18KT 20/03 A3003 RMK A01 T02020027  RH  031%=      5-min Rain = 0
KKE1 162146Z 23015KT 20/02 A3003 RMK A01 T02020023  RH  030%=      5-min Rain = 0
KKE1 162147Z 24015KT 20/02 A3003 RMK A01 T02020021  RH  030%=      5-min Rain = 0
KKE1 162148Z 24016KT 20/02 A3003 RMK A01 T02020024  RH  031%=      5-min Rain = 0
KKE1 162149Z 24013G18KT 20/03 A3003 RMK A01 T02020027  RH  031%=      5-min Rain = 0
KKE1 162150Z 23012KT 20/03 A3003 RMK A01 T02030029  RH  032%=      5-min Rain = 0
KKE1 162151Z 23012KT 20/03 A3003 RMK A01 T02030029  RH  032%=      5-min Rain = 0
KKE1 162152Z 25014KT 20/03 A3003 RMK A01 T02040030  RH  032%=      5-min Rain = 0
KKE1 162153Z 24016G21KT 21/03 A3003 RMK A01 T02050028  RH  031%=      5-min Rain = 0
KKE1 162154Z 25014G19KT 21/03 A3003 RMK A01 T02060027  RH  031%=      5-min Rain = 0
KKE1 162155Z 25016KT 21/03 A3003 RMK A01 T02060028  RH  031%=      5-min Rain = 0
KKE1 162156Z 24015KT 21/03 A3003 RMK A01 T02070030  RH  031%=      5-min Rain = 0
KKE1 162157Z 23015G20KT 21/03 A3003 RMK A01 T02060030  RH  031%=      5-min Rain = 0
KKE1 162158Z 24013KT 21/03 A3003 RMK A01 T02060029  RH  031%=      5-min Rain = 0
KKE1 162159Z 23019KT 21/03 A3003 RMK A01 T02050028  RH  031%=      5-min Rain = 0
KKE1 162200Z 23016KT 20/03 A3003 RMK A01 T02040026  RH  031%=      5-min Rain = 0
KKE1 162201Z 23017KT 20/03 A3003 RMK A01 T02020026  RH  031%=      5-min Rain = 0
KKE1 162202Z 24013KT 20/03 A3003 RMK A01 T02010027  RH  032%=      5-min Rain = 0
KKE1 162203Z 23017KT 20/03 A3003 RMK A01 T02040028  RH  031%=      5-min Rain = 0
KKE1 162204Z 24016G21KT 20/03 A3003 RMK A01 T02040028  RH  031%=      5-min Rain = 0
KKE1 162205Z 24015KT 20/03 A3003 RMK A01 T02040028  RH  031%=      5-min Rain = 0
KKE1 162206Z 25013G18KT 20/03 A3003 RMK A01 T02040028  RH  031%=      5-min Rain = 0
KKE1 162207Z 24012G18KT 20/03 A3003 RMK A01 T02040029  RH  031%=      5-min Rain = 0
KKE1 162208Z 25017KT 21/03 A3003 RMK A01 T02050029  RH  031%=      5-min Rain = 0
KKE1 162209Z 25016KT 21/03 A3003 RMK A01 T02050031  RH  032%=      5-min Rain = 0
KKE1 162210Z 25014G19KT 20/03 A3003 RMK A01 T02020030  RH  032%=      5-min Rain = 0
KKE1 162211Z 24014G19KT 20/03 A3003 RMK A01 T02020030  RH  032%=      5-min Rain = 0
KKE1 162212Z 23015G21KT 20/03 A3003 RMK A01 T02020028  RH  032%=      5-min Rain = 0
KKE1 162213Z 23015KT 20/03 A3003 RMK A01 T02010027  RH  032%=      5-min Rain = 0
KKE1 162214Z 23014KT 20/03 A3003 RMK A01 T02000027  RH  032%=      5-min Rain = 0
KKE1 162215Z 24014G19KT 20/03 A3003 RMK A01 T02010029  RH  032%=      5-min Rain = 0
KKE1 162216Z 24018KT 20/03 A3003 RMK A01 T02020029  RH  032%=      5-min Rain = 0
KKE1 162217Z 24016KT 20/03 A3003 RMK A01 T02020029  RH  032%=      5-min Rain = 0
KKE1 162218Z 24018KT 20/03 A3003 RMK A01 T02020028  RH  032%=      5-min Rain = 0
KKE1 162219Z 24014KT 20/03 A3003 RMK A01 T02010028  RH  032%=      5-min Rain = 0
KKE1 162220Z 24015G21KT 20/03 A3003 RMK A01 T02010027  RH  032%=      5-min Rain = 0
KKE1 162221Z 25016KT 20/03 A3003 RMK A01 T02010028  RH  032%=      5-min Rain = 0
KKE1 162222Z 24015KT 20/03 A3003 RMK A01 T02010028  RH  032%=      5-min Rain = 0
KKE1 162223Z 24016KT 20/03 A3003 RMK A01 T02010028  RH  032%=      5-min Rain = 0
KKE1 162224Z 24014KT 20/03 A3003 RMK A01 T02010028  RH  032%=      5-min Rain = 0
KKE1 162225Z 24016KT 20/03 A3003 RMK A01 T02010028  RH  032%=      5-min Rain = 0
KKE1 162226Z 24014KT 20/03 A3003 RMK A01 T01990028  RH  032%=      5-min Rain = 0
KKE1 162227Z 24015KT 20/03 A3003 RMK A01 T01980029  RH  032%=      5-min Rain = 0
KKE1 162228Z 24012KT 20/03 A3003 RMK A01 T01970029  RH  033%=      5-min Rain = 0
KKE1 162229Z 25014KT 20/03 A3003 RMK A01 T01960030  RH  033%=      5-min Rain = 0
KKE1 162230Z 25015KT 20/03 A3003 RMK A01 T01960029  RH  033%=      5-min Rain = 0
KKE1 162231Z 25014KT 20/03 A3003 RMK A01 T01950029  RH  033%=      5-min Rain = 0
KKE1 162232Z 24012KT 19/03 A3003 RMK A01 T01940030  RH  034%=      5-min Rain = 0
KKE1 162233Z 24012KT 19/03 A3003 RMK A01 T01940029  RH  034%=      5-min Rain = 0
KKE1 162234Z 24013KT 19/03 A3003 RMK A01 T01940029  RH  034%=      5-min Rain = 0
KKE1 162235Z 24014KT 19/03 A3003 RMK A01 T01940029  RH  033%=      5-min Rain = 0
KKE1 162236Z 25013KT 20/03 A3003 RMK A01 T01950029  RH  033%=      5-min Rain = 0
KKE1 162237Z 24011KT 20/03 A3003 RMK A01 T01950030  RH  033%=      5-min Rain = 0
KKE1 162238Z 25013KT 20/03 A3003 RMK A01 T01960031  RH  034%=      5-min Rain = 0
KKE1 162239Z 24013KT 20/03 A3003 RMK A01 T01950031  RH  034%=      5-min Rain = 0
KKE1 162240Z 25011KT 20/03 A3003 RMK A01 T01950031  RH  034%=      5-min Rain = 0
KKE1 162241Z 25008G13KT 20/03 A3003 RMK A01 T01960032  RH  034%=      5-min Rain = 0
KKE1 162242Z 24011KT 20/03 A3003 RMK A01 T01980032  RH  033%=      5-min Rain = 0
KKE1 162243Z 24013G18KT 20/03 A3003 RMK A01 T01990031  RH  033%=      5-min Rain = 0
KKE1 162244Z 24013KT 20/03 A3003 RMK A01 T01980030  RH  033%=      5-min Rain = 0
KKE1 162245Z 24009KT 20/03 A3003 RMK A01 T01980031  RH  033%=      5-min Rain = 0
KKE1 162246Z 25012KT 20/03 A3003 RMK A01 T01980031  RH  033%=      5-min Rain = 0
KKE1 162247Z 25012KT 20/03 A3003 RMK A01 T01990031  RH  033%=      5-min Rain = 0
KKE1 162248Z 24010KT 20/03 A3003 RMK A01 T01990032  RH  033%=      5-min Rain = 0
KKE1 162249Z 24013KT 20/03 A3003 RMK A01 T01990031  RH  033%=      5-min Rain = 0
KKE1 162250Z 24014KT 20/03 A3003 RMK A01 T01980031  RH  033%=      5-min Rain = 0
KKE1 162251Z 24013KT 20/03 A3003 RMK A01 T01980031  RH  033%=      5-min Rain = 0
KKE1 162252Z 24011KT 20/03 A3003 RMK A01 T01970031  RH  033%=      5-min Rain = 0
KKE1 162253Z 25013KT 20/03 A3003 RMK A01 T01970032  RH  034%=      5-min Rain = 0
KKE1 162254Z 24014KT 20/03 A3003 RMK A01 T01970032  RH  034%=      5-min Rain = 0
KKE1 162255Z 24014KT 20/03 A3003 RMK A01 T01960032  RH  034%=      5-min Rain = 0
KKE1 162256Z 24011KT 20/03 A3003 RMK A01 T01950032  RH  034%=      5-min Rain = 0
KKE1 162257Z 24014KT 19/03 A3003 RMK A01 T01940032  RH  034%=      5-min Rain = 0
KKE1 162258Z 24013KT 19/03 A3003 RMK A01 T01940032  RH  034%=      5-min Rain = 0
KKE1 162259Z 24012KT 19/03 A3003 RMK A01 T01930031  RH  034%=      5-min Rain = 0
KKE1 162300Z 24013KT 19/03 A3003 RMK A01 T01920032  RH  034%=      5-min Rain = 0
KKE1 162301Z 24011KT 19/03 A3003 RMK A01 T01920032  RH  034%=      5-min Rain = 0
KKE1 162302Z 24010G15KT 19/03 A3003 RMK A01 T01910032  RH  035%=      5-min Rain = 0
KKE1 162303Z 24012KT 19/03 A3003 RMK A01 T01910032  RH  035%=      5-min Rain = 0
KKE1 162304Z 24012KT 19/03 A3003 RMK A01 T01910032  RH  035%=      5-min Rain = 0
KKE1 162305Z 24011KT 19/03 A3003 RMK A01 T01910033  RH  035%=      5-min Rain = 0
KKE1 162306Z 24010KT 19/03 A3003 RMK A01 T01900033  RH  035%=      5-min Rain = 0
KKE1 162307Z 25011KT 19/03 A3003 RMK A01 T01910033  RH  035%=      5-min Rain = 0
KKE1 162308Z 24014KT 19/03 A3003 RMK A01 T01900032  RH  035%=      5-min Rain = 0
KKE1 162309Z 24014KT 19/03 A3003 RMK A01 T01900032  RH  035%=      5-min Rain = 0
KKE1 162310Z 25013G18KT 19/03 A3003 RMK A01 T01890032  RH  035%=      5-min Rain = 0
KKE1 162311Z 24012KT 19/03 A3003 RMK A01 T01890033  RH  035%=      5-min Rain = 0
KKE1 162312Z 24011KT 19/03 A3003 RMK A01 T01890033  RH  035%=      5-min Rain = 0
KKE1 162313Z 23012KT 19/03 A3003 RMK A01 T01890033  RH  035%=      5-min Rain = 0
KKE1 162314Z 24013KT 19/03 A3003 RMK A01 T01880032  RH  035%=      5-min Rain = 0
KKE1 162315Z 24012KT 19/03 A3003 RMK A01 T01880032  RH  035%=      5-min Rain = 0
KKE1 162316Z 24011KT 19/03 A3003 RMK A01 T01880032  RH  036%=      5-min Rain = 0
KKE1 162317Z 24010KT 19/03 A3003 RMK A01 T01880033  RH  036%=      5-min Rain = 0
KKE1 162318Z 23011KT 19/03 A3003 RMK A01 T01880032  RH  036%=      5-min Rain = 0
KKE1 162319Z 24011KT 19/03 A3003 RMK A01 T01880032  RH  036%=      5-min Rain = 0
KKE1 162320Z 24010KT 19/03 A3003 RMK A01 T01880032  RH  036%=      5-min Rain = 0
KKE1 162321Z 24010KT 19/03 A3003 RMK A01 T01880033  RH  036%=      5-min Rain = 0
KKE1 162322Z 24009G14KT 19/03 A3003 RMK A01 T01880033  RH  036%=      5-min Rain = 0
KKE1 162323Z 23012KT 19/03 A3003 RMK A01 T01880033  RH  036%=      5-min Rain = 0
KKE1 162324Z 24010KT 19/03 A3003 RMK A01 T01880033  RH  036%=      5-min Rain = 0
KKE1 162325Z 24009KT 19/03 A3003 RMK A01 T01880033  RH  036%=      5-min Rain = 0
KKE1 162326Z 24009KT 19/03 A3003 RMK A01 T01880033  RH  036%=      5-min Rain = 0
KKE1 162327Z 24010KT 19/03 A3003 RMK A01 T01880033  RH  036%=      5-min Rain = 0
KKE1 162328Z 24011KT 19/03 A3003 RMK A01 T01880033  RH  036%=      5-min Rain = 0
KKE1 162329Z 24014KT 19/03 A3003 RMK A01 T01870033  RH  036%=      5-min Rain = 0
KKE1 162330Z 24011KT 19/03 A3003 RMK A01 T01870033  RH  036%=      5-min Rain = 0
KKE1 162331Z 24011KT 19/03 A3003 RMK A01 T01870034  RH  036%=      5-min Rain = 0
KKE1 162332Z 24011KT 19/03 A3003 RMK A01 T01860034  RH  036%=      5-min Rain = 0
KKE1 162333Z 24011KT 19/03 A3003 RMK A01 T01860034  RH  036%=      5-min Rain = 0
KKE1 162334Z 24010KT 19/03 A3003 RMK A01 T01860034  RH  036%=      5-min Rain = 0
KKE1 162335Z 24012KT 19/03 A3003 RMK A01 T01850034  RH  037%=      5-min Rain = 0
KKE1 162336Z 24010KT 18/03 A3003 RMK A01 T01840034  RH  037%=      5-min Rain = 0
KKE1 162337Z 24008KT 18/03 A3003 RMK A01 T01840034  RH  037%=      5-min Rain = 0
KKE1 162338Z 24011KT 18/03 A3003 RMK A01 T01830034  RH  037%=      5-min Rain = 0
KKE1 162339Z 24011KT 18/03 A3003 RMK A01 T01830034  RH  037%=      5-min Rain = 0
KKE1 162340Z 24012KT 18/03 A3003 RMK A01 T01830034  RH  037%=      5-min Rain = 0
KKE1 162341Z 24012KT 18/03 A3003 RMK A01 T01830034  RH  037%=      5-min Rain = 0
KKE1 162342Z 24011KT 18/03 A3003 RMK A01 T01830034  RH  037%=      5-min Rain = 0
KKE1 162343Z 24010KT 18/03 A3003 RMK A01 T01820034  RH  037%=      5-min Rain = 0
KKE1 162344Z 25009KT 18/04 A3003 RMK A01 T01820035  RH  038%=      5-min Rain = 0
KKE1 162345Z 24008KT 18/04 A3003 RMK A01 T01810035  RH  038%=      5-min Rain = 0
KKE1 162346Z 24006KT 18/04 A3004 RMK A01 T01800035  RH  038%=      5-min Rain = 0
KKE1 162347Z 24010KT 18/03 A3003 RMK A01 T01790034  RH  038%=      5-min Rain = 0
KKE1 162348Z 24011KT 18/04 A3004 RMK A01 T01790035  RH  038%=      5-min Rain = 0
KKE1 162349Z 24010KT 18/04 A3004 RMK A01 T01790035  RH  038%=      5-min Rain = 0
KKE1 162350Z 24012KT 18/04 A3004 RMK A01 T01780035  RH  039%=      5-min Rain = 0
KKE1 162351Z 24013KT 18/04 A3004 RMK A01 T01770035  RH  039%=      5-min Rain = 0
KKE1 162352Z 24011KT 18/04 A3004 RMK A01 T01770035  RH  039%=      5-min Rain = 0
KKE1 162353Z 24012KT 18/04 A3004 RMK A01 T01770035  RH  039%=      5-min Rain = 0
KKE1 162354Z 24009KT 18/04 A3004 RMK A01 T01760035  RH  039%=      5-min Rain = 0
KKE1 162355Z 24011KT 18/04 A3003 RMK A01 T01750035  RH  039%=      5-min Rain = 0
KKE1 162356Z 24009KT 18/04 A3004 RMK A01 T01750035  RH  039%=      5-min Rain = 0
KKE1 162357Z 25008KT 18/04 A3004 RMK A01 T01750035  RH  039%=      5-min Rain = 0
KKE1 162358Z 25010KT 17/04 A3003 RMK A01 T01740035  RH  040%=      5-min Rain = 0
KKE1 162359Z 25008KT 17/04 A3004 RMK A01 T01740035  RH  040%=      5-min Rain = 0
KKE1 170000Z 24011KT 17/04 A3003 RMK A01 T01730035  RH  040%=      5-min Rain = 0
KKE1 170001Z 25010KT 17/04 A3004 RMK A01 T01730035  RH  040%=      5-min Rain = 0
KKE1 170002Z 25009KT 17/04 A3004 RMK A01 T01730035  RH  040%=      5-min Rain = 0
KKE1 170003Z 25008KT 17/04 A3004 RMK A01 T01720035  RH  040%=      5-min Rain = 0
KKE1 170004Z 25009KT 17/04 A3003 RMK A01 T01720035  RH  040%=      5-min Rain = 0
KKE1 170005Z 25007KT 17/04 A3003 RMK A01 T01710035  RH  040%=      5-min Rain = 0
KKE1 170006Z 25009G14KT 17/04 A3003 RMK A01 T01710035  RH  040%=      5-min Rain = 0
KKE1 170007Z 24010KT 17/04 A3003 RMK A01 T01700035  RH  040%=      5-min Rain = 0
KKE1 170008Z 24010KT 17/04 A3003 RMK A01 T01700035  RH  041%=      5-min Rain = 0
KKE1 170009Z 25010KT 17/04 A3003 RMK A01 T01700035  RH  041%=      5-min Rain = 0
KKE1 170010Z 25009KT 17/04 A3003 RMK A01 T01700035  RH  041%=      5-min Rain = 0
KKE1 170011Z 24009KT 17/04 A3003 RMK A01 T01690035  RH  041%=      5-min Rain = 0
KKE1 170012Z 24012KT 17/04 A3003 RMK A01 T01680035  RH  041%=      5-min Rain = 0
KKE1 170013Z 24011KT 17/04 A3003 RMK A01 T01690035  RH  041%=      5-min Rain = 0
KKE1 170014Z 24012KT 17/04 A3003 RMK A01 T01690035  RH  041%=      5-min Rain = 0
KKE1 170015Z 23012KT 17/04 A3003 RMK A01 T01690035  RH  041%=      5-min Rain = 0
KKE1 170016Z 24010KT 17/04 A3003 RMK A01 T01680036  RH  041%=      5-min Rain = 0
KKE1 170017Z 24011KT 17/04 A3003 RMK A01 T01680036  RH  041%=      5-min Rain = 0
KKE1 170018Z 24011KT 17/04 A3003 RMK A01 T01670036  RH  041%=      5-min Rain = 0
KKE1 170019Z 24011KT 17/04 A3003 RMK A01 T01670036  RH  042%=      5-min Rain = 0
KKE1 170020Z 24013KT 17/04 A3003 RMK A01 T01670036  RH  042%=      5-min Rain = 0
KKE1 170021Z 23011KT 17/04 A3003 RMK A01 T01670035  RH  042%=      5-min Rain = 0
KKE1 170022Z 23012G17KT 17/04 A3003 RMK A01 T01670035  RH  042%=      5-min Rain = 0
KKE1 170023Z 24012KT 17/04 A3003 RMK A01 T01670036  RH  042%=      5-min Rain = 0
KKE1 170024Z 23011KT 17/04 A3003 RMK A01 T01670036  RH  042%=      5-min Rain = 0
KKE1 170025Z 23011KT 17/04 A3003 RMK A01 T01660035  RH  042%=      5-min Rain = 0
KKE1 170026Z 23010KT 17/04 A3003 RMK A01 T01660035  RH  042%=      5-min Rain = 0
KKE1 170027Z 24010KT 17/04 A3003 RMK A01 T01660036  RH  042%=      5-min Rain = 0
KKE1 170028Z 23012KT 17/04 A3003 RMK A01 T01650036  RH  042%=      5-min Rain = 0
KKE1 170029Z 23011KT 17/04 A3003 RMK A01 T01650036  RH  042%=      5-min Rain = 0
KKE1 170030Z 23010KT 17/04 A3003 RMK A01 T01650036  RH  042%=      5-min Rain = 0
KKE1 170031Z 23013KT 17/04 A3003 RMK A01 T01650036  RH  042%=      5-min Rain = 0
KKE1 170032Z 23012KT 17/04 A3003 RMK A01 T01650036  RH  042%=      5-min Rain = 0
KKE1 170033Z 22012KT 17/04 A3003 RMK A01 T01650036  RH  042%=      5-min Rain = 0
KKE1 170034Z 22013KT 17/04 A3003 RMK A01 T01660036  RH  042%=      5-min Rain = 0
KKE1 170035Z 23013KT 17/04 A3003 RMK A01 T01670036  RH  042%=      5-min Rain = 0
KKE1 170036Z 23013KT 17/04 A3003 RMK A01 T01670036  RH  042%=      5-min Rain = 0
KKE1 170037Z 23013KT 17/04 A3003 RMK A01 T01670036  RH  042%=      5-min Rain = 0
KKE1 170038Z 23013KT 17/04 A3003 RMK A01 T01670036  RH  042%=      5-min Rain = 0
KKE1 170039Z 23013G19KT 17/04 A3003 RMK A01 T01660036  RH  042%=      5-min Rain = 0
KKE1 170040Z 23014KT 17/04 A3003 RMK A01 T01660036  RH  042%=      5-min Rain = 0
KKE1 170041Z 23015KT 17/04 A3003 RMK A01 T01660036  RH  042%=      5-min Rain = 0
KKE1 170042Z 23014KT 17/04 A3003 RMK A01 T01670036  RH  042%=      5-min Rain = 0
KKE1 170043Z 23017KT 17/04 A3003 RMK A01 T01670035  RH  041%=      5-min Rain = 0
KKE1 170044Z 23014KT 17/04 A3003 RMK A01 T01670035  RH  041%=      5-min Rain = 0
KKE1 170045Z 23015KT 17/04 A3003 RMK A01 T01680036  RH  041%=      5-min Rain = 0
KKE1 170046Z 23015KT 17/04 A3003 RMK A01 T01680035  RH  041%=      5-min Rain = 0
KKE1 170047Z 23015KT 17/04 A3003 RMK A01 T01680035  RH  041%=      5-min Rain = 0
KKE1 170048Z 23013KT 17/04 A3003 RMK A01 T01680035  RH  041%=      5-min Rain = 0
KKE1 170049Z 23014KT 17/04 A3003 RMK A01 T01680035  RH  041%=      5-min Rain = 0
KKE1 170050Z 23013KT 17/04 A3003 RMK A01 T01690036  RH  041%=      5-min Rain = 0
KKE1 170051Z 23012KT 17/04 A3003 RMK A01 T01680035  RH  041%=      5-min Rain = 0
KKE1 170052Z 23014KT 17/04 A3003 RMK A01 T01670036  RH  041%=      5-min Rain = 0
KKE1 170053Z 22012KT 17/04 A3003 RMK A01 T01670035  RH  041%=      5-min Rain = 0
KKE1 170054Z 23013KT 17/04 A3003 RMK A01 T01670035  RH  041%=      5-min Rain = 0
KKE1 170055Z 23014KT 17/04 A3003 RMK A01 T01670035  RH  041%=      5-min Rain = 0
KKE1 170056Z 23014KT 17/04 A3003 RMK A01 T01670035  RH  041%=      5-min Rain = 0
KKE1 170057Z 23013KT 17/04 A3003 RMK A01 T01670035  RH  041%=      5-min Rain = 0
KKE1 170058Z 23013KT 17/04 A3003 RMK A01 T01670035  RH  041%=      5-min Rain = 0
KKE1 170059Z 23014KT 17/04 A3003 RMK A01 T01680036  RH  041%=      5-min Rain = 0
KKE1 170100Z 23014KT 17/04 A3004 RMK A01 T01680036  RH  041%=      5-min Rain = 0
KKE1 170101Z 23014KT 17/04 A3004 RMK A01 T01670035  RH  041%=      5-min Rain = 0
KKE1 170102Z 23013KT 17/04 A3004 RMK A01 T01670035  RH  041%=      5-min Rain = 0
KKE1 170103Z 23013KT 17/04 A3004 RMK A01 T01670036  RH  042%=      5-min Rain = 0
KKE1 170104Z 23014KT 17/04 A3004 RMK A01 T01660036  RH  042%=      5-min Rain = 0
KKE1 170105Z 23014KT 17/04 A3004 RMK A01 T01660035  RH  042%=      5-min Rain = 0
KKE1 170106Z 23012KT 17/04 A3004 RMK A01 T01670035  RH  042%=      5-min Rain = 0
KKE1 170107Z 23014KT 17/04 A3004 RMK A01 T01670036  RH  042%=      5-min Rain = 0
KKE1 170108Z 23013KT 17/04 A3004 RMK A01 T01660035  RH  042%=      5-min Rain = 0
KKE1 170109Z 23013KT 17/04 A3004 RMK A01 T01660036  RH  042%=      5-min Rain = 0
KKE1 170110Z 23012KT 17/04 A3004 RMK A01 T01660035  RH  042%=      5-min Rain = 0
KKE1 170111Z 23013KT 17/04 A3004 RMK A01 T01660036  RH  042%=      5-min Rain = 0
KKE1 170112Z 23014KT 17/04 A3004 RMK A01 T01650035  RH  042%=      5-min Rain = 0
KKE1 170113Z 23014KT 17/04 A3004 RMK A01 T01650035  RH  042%=      5-min Rain = 0
KKE1 170114Z 23012KT 17/04 A3004 RMK A01 T01650035  RH  042%=      5-min Rain = 0
KKE1 170115Z 23014G19KT 17/04 A3004 RMK A01 T01650035  RH  042%=      5-min Rain = 0
KKE1 170116Z 23015KT 17/04 A3004 RMK A01 T01650035  RH  042%=      5-min Rain = 0
KKE1 170117Z 23015KT 17/04 A3004 RMK A01 T01650036  RH  042%=      5-min Rain = 0
KKE1 170118Z 23014G19KT 17/04 A3004 RMK A01 T01650036  RH  042%=      5-min Rain = 0
KKE1 170119Z 23014KT 16/04 A3004 RMK A01 T01640036  RH  042%=      5-min Rain = 0
KKE1 170120Z 23014KT 16/04 A3004 RMK A01 T01640035  RH  042%=      5-min Rain = 0
KKE1 170121Z 23014KT 16/04 A3004 RMK A01 T01630035  RH  042%=      5-min Rain = 0
KKE1 170122Z 23014KT 16/04 A3004 RMK A01 T01630036  RH  043%=      5-min Rain = 0
KKE1 170123Z 23015KT 16/04 A3004 RMK A01 T01630036  RH  043%=      5-min Rain = 0
KKE1 170124Z 23014KT 16/04 A3004 RMK A01 T01630036  RH  043%=      5-min Rain = 0
KKE1 170125Z 23014KT 16/04 A3004 RMK A01 T01630036  RH  043%=      5-min Rain = 0
KKE1 170126Z 23013KT 16/04 A3004 RMK A01 T01630036  RH  043%=      5-min Rain = 0
KKE1 170127Z 23012KT 16/04 A3004 RMK A01 T01620035  RH  043%=      5-min Rain = 0
KKE1 170128Z 23011KT 16/04 A3004 RMK A01 T01610036  RH  043%=      5-min Rain = 0
KKE1 170129Z 23012KT 16/04 A3004 RMK A01 T01610036  RH  043%=      5-min Rain = 0
KKE1 170130Z 23011KT 16/04 A3004 RMK A01 T01610035  RH  043%=      5-min Rain = 0
KKE1 170131Z 23012KT 16/04 A3004 RMK A01 T01610035  RH  043%=      5-min Rain = 0
KKE1 170132Z 23013KT 16/04 A3004 RMK A01 T01610036  RH  043%=      5-min Rain = 0
KKE1 170133Z 23013KT 16/04 A3004 RMK A01 T01620035  RH  043%=      5-min Rain = 0
KKE1 170134Z 23012KT 16/04 A3004 RMK A01 T01630036  RH  043%=      5-min Rain = 0
KKE1 170135Z 24011KT 16/04 A3004 RMK A01 T01630036  RH  043%=      5-min Rain = 0
KKE1 170136Z 24012KT 16/04 A3004 RMK A01 T01630036  RH  043%=      5-min Rain = 0
KKE1 170137Z 23011KT 16/04 A3004 RMK A01 T01620036  RH  043%=      5-min Rain = 0
KKE1 170138Z 24012KT 16/04 A3004 RMK A01 T01610036  RH  043%=      5-min Rain = 0
KKE1 170139Z 23012KT 16/04 A3004 RMK A01 T01600036  RH  043%=      5-min Rain = 0
KKE1 170140Z 23012KT 16/04 A3004 RMK A01 T01600036  RH  043%=      5-min Rain = 0
KKE1 170141Z 23012KT 16/04 A3004 RMK A01 T01610036  RH  043%=      5-min Rain = 0
KKE1 170142Z 23013KT 16/04 A3004 RMK A01 T01610036  RH  043%=      5-min Rain = 0
KKE1 170143Z 23014KT 16/04 A3004 RMK A01 T01610036  RH  043%=      5-min Rain = 0
KKE1 170144Z 23014KT 16/04 A3004 RMK A01 T01610035  RH  043%=      5-min Rain = 0
KKE1 170145Z 23014KT 16/04 A3005 RMK A01 T01610035  RH  043%=      5-min Rain = 0
KKE1 170146Z 23015KT 16/04 A3005 RMK A01 T01610036  RH  043%=      5-min Rain = 0
KKE1 170147Z 23014KT 16/04 A3005 RMK A01 T01610035  RH  043%=      5-min Rain = 0
KKE1 170148Z 23013KT 16/04 A3004 RMK A01 T01620035  RH  043%=      5-min Rain = 0
KKE1 170149Z 23014KT 16/04 A3004 RMK A01 T01620035  RH  043%=      5-min Rain = 0
KKE1 170150Z 23015KT 16/04 A3004 RMK A01 T01620036  RH  043%=      5-min Rain = 0
KKE1 170151Z 23015KT 16/04 A3004 RMK A01 T01630036  RH  043%=      5-min Rain = 0
KKE1 170152Z 23015KT 16/04 A3004 RMK A01 T01630036  RH  043%=      5-min Rain = 0
KKE1 170153Z 23014KT 16/04 A3004 RMK A01 T01630036  RH  043%=      5-min Rain = 0
KKE1 170154Z 22013KT 16/04 A3004 RMK A01 T01630036  RH  043%=      5-min Rain = 0
KKE1 170155Z 23013KT 16/04 A3004 RMK A01 T01630036  RH  043%=      5-min Rain = 0
KKE1 170156Z 23014KT 16/04 A3004 RMK A01 T01630036  RH  043%=      5-min Rain = 0
KKE1 170157Z 23015KT 16/04 A3004 RMK A01 T01630036  RH  043%=      5-min Rain = 0
KKE1 170158Z 23014KT 16/04 A3004 RMK A01 T01630036  RH  043%=      5-min Rain = 0
KKE1 170159Z 23015KT 16/04 A3004 RMK A01 T01630036  RH  043%=      5-min Rain = 0
KKE1 170200Z 23015KT 16/04 A3004 RMK A01 T01630036  RH  043%=      5-min Rain = 0
KKE1 170201Z 23015KT 16/04 A3004 RMK A01 T01640036  RH  043%=      5-min Rain = 0
KKE1 170202Z 23013KT 16/04 A3004 RMK A01 T01640036  RH  043%=      5-min Rain = 0
KKE1 170203Z 23016KT 16/04 A3004 RMK A01 T01630036  RH  043%=      5-min Rain = 0
KKE1 170204Z 23014KT 16/04 A3004 RMK A01 T01630036  RH  043%=      5-min Rain = 0
KKE1 170205Z 22015KT 16/04 A3004 RMK A01 T01630036  RH  043%=      5-min Rain = 0
KKE1 170206Z 22014G20KT 16/04 A3004 RMK A01 T01630036  RH  043%=      5-min Rain = 0
KKE1 170207Z 23015KT 16/04 A3004 RMK A01 T01640036  RH  042%=      5-min Rain = 0
KKE1 170208Z 22013KT 16/04 A3004 RMK A01 T01640036  RH  043%=      5-min Rain = 0
KKE1 170209Z 23012KT 16/04 A3004 RMK A01 T01630036  RH  043%=      5-min Rain = 0
KKE1 170210Z 23014KT 16/04 A3004 RMK A01 T01630036  RH  043%=      5-min Rain = 0
KKE1 170211Z 23015KT 16/04 A3004 RMK A01 T01630036  RH  043%=      5-min Rain = 0
KKE1 170212Z 23013KT 16/04 A3004 RMK A01 T01630036  RH  043%=      5-min Rain = 0
KKE1 170213Z 23015KT 16/04 A3004 RMK A01 T01630036  RH  043%=      5-min Rain = 0
KKE1 170214Z 23014KT 16/04 A3004 RMK A01 T01630036  RH  043%=      5-min Rain = 0
KKE1 170215Z 23015KT 16/04 A3004 RMK A01 T01630036  RH  043%=      5-min Rain = 0
KKE1 170216Z 23015KT 16/04 A3004 RMK A01 T01630035  RH  042%=      5-min Rain = 0
KKE1 170217Z 23014KT 16/04 A3004 RMK A01 T01630035  RH  042%=      5-min Rain = 0
KKE1 170218Z 22015KT 16/04 A3004 RMK A01 T01630035  RH  042%=      5-min Rain = 0
KKE1 170219Z 22015KT 16/04 A3004 RMK A01 T01630035  RH  042%=      5-min Rain = 0
KKE1 170220Z 22016KT 16/03 A3004 RMK A01 T01640034  RH  042%=      5-min Rain = 0
KKE1 170221Z 22016KT 17/03 A3004 RMK A01 T01650034  RH  042%=      5-min Rain = 0
KKE1 170222Z 23017KT 17/03 A3004 RMK A01 T01650034  RH  041%=      5-min Rain = 0
KKE1 170223Z 23014KT 17/03 A3004 RMK A01 T01670034  RH  041%=      5-min Rain = 0
KKE1 170224Z 23015KT 17/03 A3004 RMK A01 T01660034  RH  041%=      5-min Rain = 0
KKE1 170225Z 23015KT 17/03 A3004 RMK A01 T01650033  RH  041%=      5-min Rain = 0
KKE1 170226Z 23017KT 17/03 A3004 RMK A01 T01650034  RH  041%=      5-min Rain = 0
KKE1 170227Z 23016KT 17/03 A3004 RMK A01 T01650033  RH  041%=      5-min Rain = 0
KKE1 170228Z 23015KT 17/03 A3004 RMK A01 T01650034  RH  041%=      5-min Rain = 0
KKE1 170229Z 23015KT 17/03 A3004 RMK A01 T01650033  RH  041%=      5-min Rain = 0
KKE1 170230Z 23016KT 16/03 A3004 RMK A01 T01640034  RH  042%=      5-min Rain = 0
KKE1 170231Z 23016KT 16/03 A3004 RMK A01 T01640033  RH  042%=      5-min Rain = 0
KKE1 170232Z 22015KT 16/03 A3004 RMK A01 T01640033  RH  042%=      5-min Rain = 0
KKE1 170233Z 23013KT 17/03 A3004 RMK A01 T01650033  RH  042%=      5-min Rain = 0
KKE1 170234Z 23015KT 16/03 A3004 RMK A01 T01640033  RH  042%=      5-min Rain = 0
KKE1 170235Z 23016KT 16/03 A3004 RMK A01 T01640033  RH  041%=      5-min Rain = 0
KKE1 170236Z 23014KT 16/03 A3004 RMK A01 T01640033  RH  041%=      5-min Rain = 0
KKE1 170237Z 22012KT 16/03 A3004 RMK A01 T01640033  RH  042%=      5-min Rain = 0
KKE1 170238Z 22013KT 16/03 A3004 RMK A01 T01640033  RH  042%=      5-min Rain = 0
KKE1 170239Z 23014KT 16/03 A3004 RMK A01 T01630032  RH  041%=      5-min Rain = 0
KKE1 170240Z 22013KT 16/03 A3004 RMK A01 T01640032  RH  041%=      5-min Rain = 0
KKE1 170241Z 23015KT 16/03 A3004 RMK A01 T01640031  RH  041%=      5-min Rain = 0
KKE1 170242Z 23014KT 16/03 A3004 RMK A01 T01640031  RH  041%=      5-min Rain = 0
KKE1 170243Z 22014G20KT 17/03 A3004 RMK A01 T01650031  RH  041%=      5-min Rain = 0
KKE1 170244Z 22012KT 17/03 A3004 RMK A01 T01650031  RH  041%=      5-min Rain = 0
KKE1 170245Z 23014KT 17/03 A3004 RMK A01 T01650031  RH  041%=      5-min Rain = 0
KKE1 170246Z 22014G19KT 17/03 A3004 RMK A01 T01650030  RH  040%=      5-min Rain = 0
KKE1 170247Z 23014KT 17/03 A3005 RMK A01 T01660030  RH  040%=      5-min Rain = 0
KKE1 170248Z 23015KT 17/03 A3004 RMK A01 T01660030  RH  040%=      5-min Rain = 0
KKE1 170249Z 22014KT 17/03 A3004 RMK A01 T01660030  RH  040%=      5-min Rain = 0
KKE1 170250Z 22012KT 17/03 A3004 RMK A01 T01670030  RH  040%=      5-min Rain = 0
KKE1 170251Z 22011KT 17/03 A3004 RMK A01 T01670029  RH  040%=      5-min Rain = 0
KKE1 170252Z 22013KT 17/03 A3004 RMK A01 T01660029  RH  040%=      5-min Rain = 0
KKE1 170253Z 23016KT 17/03 A3004 RMK A01 T01660029  RH  040%=      5-min Rain = 0
KKE1 170254Z 23015KT 17/03 A3004 RMK A01 T01660029  RH  040%=      5-min Rain = 0
KKE1 170255Z 23016KT 17/03 A3004 RMK A01 T01660029  RH  040%=      5-min Rain = 0
KKE1 170256Z 23015G20KT 17/03 A3004 RMK A01 T01670029  RH  040%=      5-min Rain = 0
KKE1 170257Z 22013KT 17/03 A3004 RMK A01 T01670029  RH  040%=      5-min Rain = 0
KKE1 170258Z 22014KT 17/03 A3004 RMK A01 T01680030  RH  040%=      5-min Rain = 0
KKE1 170259Z 22013KT 17/03 A3004 RMK A01 T01670029  RH  040%=      5-min Rain = 0
KKE1 170300Z 22016KT 17/03 A3004 RMK A01 T01670029  RH  040%=      5-min Rain = 0
KKE1 170301Z 22015KT 17/03 A3004 RMK A01 T01680030  RH  040%=      5-min Rain = 0
KKE1 170302Z 22013KT 17/03 A3004 RMK A01 T01680030  RH  040%=      5-min Rain = 0
KKE1 170303Z 23015KT 17/03 A3004 RMK A01 T01680031  RH  040%=      5-min Rain = 0
KKE1 170304Z 22015KT 17/03 A3004 RMK A01 T01680031  RH  040%=      5-min Rain = 0
KKE1 170305Z 23014KT 17/03 A3004 RMK A01 T01680031  RH  040%=      5-min Rain = 0
KKE1 170306Z 23016G23KT 17/03 A3004 RMK A01 T01670031  RH  040%=      5-min Rain = 0
KKE1 170307Z 23013G18KT 17/03 A3004 RMK A01 T01670031  RH  040%=      5-min Rain = 0
KKE1 170308Z 23013KT 17/03 A3004 RMK A01 T01660031  RH  040%=      5-min Rain = 0
KKE1 170309Z 23013KT 17/03 A3004 RMK A01 T01660031  RH  040%=      5-min Rain = 0
KKE1 170310Z 23015KT 17/03 A3004 RMK A01 T01660030  RH  040%=      5-min Rain = 0
KKE1 170311Z 24012KT 17/03 A3004 RMK A01 T01650030  RH  040%=      5-min Rain = 0
KKE1 170312Z 23013KT 17/03 A3004 RMK A01 T01650030  RH  040%=      5-min Rain = 0
KKE1 170313Z 23015KT 17/03 A3004 RMK A01 T01650030  RH  040%=      5-min Rain = 0
KKE1 170314Z 24012KT 17/03 A3004 RMK A01 T01660030  RH  040%=      5-min Rain = 0
KKE1 170315Z 22015KT 17/03 A3004 RMK A01 T01670030  RH  040%=      5-min Rain = 0
KKE1 170316Z 22017KT 17/03 A3004 RMK A01 T01680030  RH  040%=      5-min Rain = 0
KKE1 170317Z 23015KT 17/03 A3004 RMK A01 T01690030  RH  039%=      5-min Rain = 0
KKE1 170318Z 23016KT 17/03 A3004 RMK A01 T01690030  RH  039%=      5-min Rain = 0
KKE1 170319Z 23017KT 17/03 A3004 RMK A01 T01690030  RH  039%=      5-min Rain = 0
KKE1 170320Z 24015KT 17/03 A3004 RMK A01 T01680030  RH  039%=      5-min Rain = 0
KKE1 170321Z 23015KT 17/03 A3004 RMK A01 T01670030  RH  040%=      5-min Rain = 0
KKE1 170322Z 23015KT 17/03 A3004 RMK A01 T01670030  RH  040%=      5-min Rain = 0
KKE1 170323Z 23016KT 17/03 A3004 RMK A01 T01670030  RH  040%=      5-min Rain = 0
KKE1 170324Z 23015KT 17/03 A3004 RMK A01 T01670030  RH  040%=      5-min Rain = 0
KKE1 170325Z 23016KT 17/03 A3004 RMK A01 T01670030  RH  040%=      5-min Rain = 0
KKE1 170326Z 23015KT 17/03 A3004 RMK A01 T01670030  RH  040%=      5-min Rain = 0
KKE1 170327Z 23016KT 17/03 A3004 RMK A01 T01670030  RH  040%=      5-min Rain = 0
KKE1 170328Z 23016KT 17/03 A3004 RMK A01 T01670030  RH  040%=      5-min Rain = 0
KKE1 170329Z 23017KT 17/03 A3003 RMK A01 T01670030  RH  040%=      5-min Rain = 0
KKE1 170330Z 23017KT 17/03 A3003 RMK A01 T01670031  RH  040%=      5-min Rain = 0
KKE1 170331Z 23017KT 17/03 A3004 RMK A01 T01660031  RH  040%=      5-min Rain = 0
KKE1 170332Z 23018KT 17/03 A3003 RMK A01 T01660031  RH  040%=      5-min Rain = 0
KKE1 170333Z 23018KT 17/03 A3003 RMK A01 T01660031  RH  041%=      5-min Rain = 0
KKE1 170334Z 23016KT 17/03 A3003 RMK A01 T01660031  RH  041%=      5-min Rain = 0
KKE1 170335Z 22016G21KT 17/03 A3003 RMK A01 T01660031  RH  041%=      5-min Rain = 0
KKE1 170336Z 23017KT 17/03 A3003 RMK A01 T01660032  RH  041%=      5-min Rain = 0
KKE1 170337Z 23017KT 17/03 A3003 RMK A01 T01660032  RH  041%=      5-min Rain = 0
KKE1 170338Z 23017KT 17/03 A3003 RMK A01 T01660032  RH  041%=      5-min Rain = 0
KKE1 170339Z 23015KT 17/03 A3003 RMK A01 T01660032  RH  041%=      5-min Rain = 0
KKE1 170340Z 23017KT 17/03 A3003 RMK A01 T01660032  RH  041%=      5-min Rain = 0
KKE1 170341Z 23018KT 17/03 A3003 RMK A01 T01660033  RH  041%=      5-min Rain = 0
KKE1 170342Z 22017KT 17/03 A3003 RMK A01 T01660033  RH  041%=      5-min Rain = 0
KKE1 170343Z 23017KT 17/03 A3003 RMK A01 T01660033  RH  041%=      5-min Rain = 0
KKE1 170344Z 23017KT 17/03 A3003 RMK A01 T01660033  RH  041%=      5-min Rain = 0
KKE1 170345Z 22016KT 17/03 A3003 RMK A01 T01660033  RH  041%=      5-min Rain = 0
KKE1 170346Z 23017KT 17/03 A3003 RMK A01 T01650033  RH  041%=      5-min Rain = 0
KKE1 170347Z 23016KT 17/03 A3003 RMK A01 T01650033  RH  041%=      5-min Rain = 0
KKE1 170348Z 23017KT 17/03 A3003 RMK A01 T01660033  RH  041%=      5-min Rain = 0
KKE1 170349Z 23015KT 17/03 A3004 RMK A01 T01650033  RH  041%=      5-min Rain = 0
KKE1 170350Z 23016KT 17/03 A3003 RMK A01 T01650033  RH  041%=      5-min Rain = 0
KKE1 170351Z 23017KT 16/03 A3003 RMK A01 T01640033  RH  041%=      5-min Rain = 0
KKE1 170352Z 23016G21KT 17/03 A3004 RMK A01 T01650033  RH  041%=      5-min Rain = 0
KKE1 170353Z 23014G19KT 17/03 A3004 RMK A01 T01650033  RH  041%=      5-min Rain = 0
KKE1 170354Z 23015KT 16/03 A3004 RMK A01 T01640033  RH  041%=      5-min Rain = 0
KKE1 170355Z 23016G21KT 16/03 A3004 RMK A01 T01640033  RH  042%=      5-min Rain = 0
KKE1 170356Z 23014KT 16/03 A3004 RMK A01 T01640034  RH  042%=      5-min Rain = 0
KKE1 170357Z 23014KT 16/03 A3004 RMK A01 T01630033  RH  042%=      5-min Rain = 0
KKE1 170358Z 23013KT 16/03 A3004 RMK A01 T01620033  RH  042%=      5-min Rain = 0
KKE1 170359Z 23014G19KT 16/03 A3004 RMK A01 T01610033  RH  042%=      5-min Rain = 0
KKE1 170400Z 23013KT 16/03 A3004 RMK A01 T01610034  RH  043%=      5-min Rain = 0
KKE1 170401Z 23014G21KT 16/03 A3004 RMK A01 T01620034  RH  042%=      5-min Rain = 0
KKE1 170402Z 23015KT 16/03 A3003 RMK A01 T01630034  RH  042%=      5-min Rain = 0
KKE1 170403Z 23014KT 16/03 A3003 RMK A01 T01640034  RH  042%=      5-min Rain = 0
KKE1 170404Z 23017KT 16/03 A3003 RMK A01 T01640033  RH  042%=      5-min Rain = 0
KKE1 170405Z 23017KT 17/03 A3003 RMK A01 T01650034  RH  041%=      5-min Rain = 0
KKE1 170406Z 23015KT 17/03 A3003 RMK A01 T01660033  RH  041%=      5-min Rain = 0
KKE1 170407Z 23015KT 17/03 A3004 RMK A01 T01650033  RH  041%=      5-min Rain = 0
KKE1 170408Z 23015KT 17/03 A3004 RMK A01 T01650033  RH  041%=      5-min Rain = 0
KKE1 170409Z 23016KT 16/03 A3004 RMK A01 T01640034  RH  042%=      5-min Rain = 0
KKE1 170410Z 22017KT 16/03 A3004 RMK A01 T01640034  RH  042%=      5-min Rain = 0
KKE1 170411Z 23016KT 16/03 A3004 RMK A01 T01640034  RH  042%=      5-min Rain = 0
KKE1 170412Z 23014KT 16/03 A3004 RMK A01 T01640034  RH  042%=      5-min Rain = 0
KKE1 170413Z 23014KT 16/03 A3004 RMK A01 T01620033  RH  042%=      5-min Rain = 0
KKE1 170414Z 24013KT 16/03 A3004 RMK A01 T01610033  RH  042%=      5-min Rain = 0
KKE1 170415Z 24012KT 16/03 A3004 RMK A01 T01600034  RH  043%=      5-min Rain = 0
KKE1 170416Z 23014KT 16/03 A3004 RMK A01 T01580034  RH  043%=      5-min Rain = 0
KKE1 170417Z 23015KT 16/03 A3004 RMK A01 T01590034  RH  043%=      5-min Rain = 0
KKE1 170418Z 23016KT 16/03 A3004 RMK A01 T01600034  RH  043%=      5-min Rain = 0
KKE1 170419Z 23015KT 16/03 A3004 RMK A01 T01600034  RH  043%=      5-min Rain = 0
KKE1 170420Z 23015KT 16/03 A3004 RMK A01 T01610034  RH  043%=      5-min Rain = 0
KKE1 170421Z 23016KT 16/03 A3004 RMK A01 T01610034  RH  043%=      5-min Rain = 0
KKE1 170422Z 24014KT 16/03 A3004 RMK A01 T01610034  RH  043%=      5-min Rain = 0
KKE1 170423Z 24013KT 16/03 A3004 RMK A01 T01590034  RH  043%=      5-min Rain = 0
KKE1 170424Z 24013KT 16/03 A3004 RMK A01 T01570034  RH  044%=      5-min Rain = 0
KKE1 170425Z 24014KT 16/04 A3004 RMK A01 T01560035  RH  044%=      5-min Rain = 0
KKE1 170426Z 23015KT 16/04 A3004 RMK A01 T01560035  RH  044%=      5-min Rain = 0
KKE1 170427Z 23014KT 16/04 A3004 RMK A01 T01570035  RH  044%=      5-min Rain = 0
KKE1 170428Z 23014KT 16/04 A3004 RMK A01 T01580035  RH  044%=      5-min Rain = 0
KKE1 170429Z 24015KT 16/04 A3004 RMK A01 T01580035  RH  044%=      5-min Rain = 0
KKE1 170430Z 23014KT 16/04 A3004 RMK A01 T01590035  RH  044%=      5-min Rain = 0
KKE1 170431Z 23015KT 16/04 A3004 RMK A01 T01590035  RH  044%=      5-min Rain = 0
KKE1 170432Z 23014KT 16/04 A3004 RMK A01 T01590035  RH  044%=      5-min Rain = 0
KKE1 170433Z 24014KT 16/04 A3004 RMK A01 T01570035  RH  044%=      5-min Rain = 0
KKE1 170434Z 24015KT 16/04 A3004 RMK A01 T01560035  RH  044%=      5-min Rain = 0
KKE1 170435Z 23015KT 16/04 A3004 RMK A01 T01560035  RH  044%=      5-min Rain = 0
KKE1 170436Z 23015KT 16/04 A3004 RMK A01 T01560035  RH  044%=      5-min Rain = 0
KKE1 170437Z 23017KT 16/04 A3004 RMK A01 T01580036  RH  044%=      5-min Rain = 0
KKE1 170438Z 23016KT 16/04 A3004 RMK A01 T01590036  RH  044%=      5-min Rain = 0
KKE1 170439Z 23015KT 16/04 A3004 RMK A01 T01590036  RH  044%=      5-min Rain = 0
KKE1 170440Z 23014KT 16/04 A3004 RMK A01 T01590036  RH  044%=      5-min Rain = 0
KKE1 170441Z 24013KT 16/04 A3004 RMK A01 T01570036  RH  044%=      5-min Rain = 0
KKE1 170442Z 23013KT 16/04 A3004 RMK A01 T01560036  RH  044%=      5-min Rain = 0
KKE1 170443Z 24013G19KT 16/04 A3004 RMK A01 T01550036  RH  045%=      5-min Rain = 0
KKE1 170444Z 24015KT 16/04 A3004 RMK A01 T01550036  RH  045%=      5-min Rain = 0
KKE1 170445Z 24012KT 16/04 A3004 RMK A01 T01550036  RH  045%=      5-min Rain = 0
KKE1 170446Z 24013KT 16/04 A3004 RMK A01 T01550036  RH  045%=      5-min Rain = 0
KKE1 170447Z 24013KT 15/04 A3004 RMK A01 T01530036  RH  046%=      5-min Rain = 0
KKE1 170448Z 24012KT 15/04 A3004 RMK A01 T01520036  RH  046%=      5-min Rain = 0
KKE1 170449Z 24013G19KT 15/04 A3004 RMK A01 T01500036  RH  046%=      5-min Rain = 0
KKE1 170450Z 24013KT 15/04 A3004 RMK A01 T01510037  RH  046%=      5-min Rain = 0
KKE1 170451Z 24015KT 15/04 A3004 RMK A01 T01530037  RH  046%=      5-min Rain = 0
KKE1 170452Z 23015KT 16/04 A3004 RMK A01 T01560037  RH  045%=      5-min Rain = 0
KKE1 170453Z 23014G19KT 16/04 A3004 RMK A01 T01570037  RH  045%=      5-min Rain = 0
KKE1 170454Z 23015KT 16/04 A3004 RMK A01 T01570037  RH  045%=      5-min Rain = 0
KKE1 170455Z 23015KT 16/04 A3004 RMK A01 T01580037  RH  044%=      5-min Rain = 0
KKE1 170456Z 23015KT 16/04 A3004 RMK A01 T01580037  RH  044%=      5-min Rain = 0
KKE1 170457Z 23016KT 16/04 A3004 RMK A01 T01580037  RH  044%=      5-min Rain = 0
KKE1 170458Z 23016KT 16/04 A3004 RMK A01 T01590038  RH  044%=      5-min Rain = 0
KKE1 170459Z 23016KT 16/04 A3004 RMK A01 T01590037  RH  044%=      5-min Rain = 0
KKE1 170500Z 23016KT 16/04 A3004 RMK A01 T01590037  RH  044%=      5-min Rain = 0
KKE1 170501Z 23018KT 16/04 A3004 RMK A01 T01590037  RH  044%=      5-min Rain = 0
KKE1 170502Z 23018KT 16/04 A3004 RMK A01 T01600038  RH  044%=      5-min Rain = 0
KKE1 170503Z 23016KT 16/04 A3004 RMK A01 T01610037  RH  044%=      5-min Rain = 0
KKE1 170504Z 23017KT 16/04 A3004 RMK A01 T01610038  RH  044%=      5-min Rain = 0
KKE1 170505Z 23015KT 16/04 A3004 RMK A01 T01610037  RH  044%=      5-min Rain = 0
KKE1 170506Z 23016KT 16/04 A3004 RMK A01 T01600037  RH  044%=      5-min Rain = 0
KKE1 170507Z 23016G21KT 16/04 A3004 RMK A01 T01590037  RH  044%=      5-min Rain = 0
KKE1 170508Z 23016KT 16/04 A3004 RMK A01 T01590037  RH  044%=      5-min Rain = 0
KKE1 170509Z 23016KT 16/04 A3004 RMK A01 T01590037  RH  044%=      5-min Rain = 0
KKE1 170510Z 23015G20KT 16/04 A3004 RMK A01 T01590038  RH  044%=      5-min Rain = 0
KKE1 170511Z 23016KT 16/04 A3004 RMK A01 T01590038  RH  044%=      5-min Rain = 0
KKE1 170512Z 23016KT 16/04 A3004 RMK A01 T01590038  RH  044%=      5-min Rain = 0
KKE1 170513Z 23015KT 16/04 A3004 RMK A01 T01590037  RH  044%=      5-min Rain = 0
KKE1 170514Z 23015KT 16/04 A3004 RMK A01 T01580037  RH  044%=      5-min Rain = 0
KKE1 170515Z 23015KT 16/04 A3004 RMK A01 T01580037  RH  044%=      5-min Rain = 0
KKE1 170516Z 23014KT 16/04 A3004 RMK A01 T01580037  RH  044%=      5-min Rain = 0
KKE1 170517Z 23015KT 16/04 A3004 RMK A01 T01580037  RH  044%=      5-min Rain = 0
KKE1 170518Z 23015KT 16/04 A3004 RMK A01 T01580037  RH  044%=      5-min Rain = 0
KKE1 170519Z 23016KT 16/04 A3004 RMK A01 T01580037  RH  044%=      5-min Rain = 0
KKE1 170520Z 23015KT 16/04 A3004 RMK A01 T01580037  RH  044%=      5-min Rain = 0
KKE1 170521Z 23015KT 16/04 A3004 RMK A01 T01580037  RH  044%=      5-min Rain = 0
KKE1 170522Z 23015KT 16/04 A3004 RMK A01 T01580037  RH  044%=      5-min Rain = 0
KKE1 170523Z 23018KT 16/04 A3004 RMK A01 T01590037  RH  044%=      5-min Rain = 0
KKE1 170524Z 23018KT 16/04 A3004 RMK A01 T01590036  RH  044%=      5-min Rain = 0
KKE1 170525Z 23016KT 16/04 A3004 RMK A01 T01600036  RH  044%=      5-min Rain = 0
KKE1 170526Z 23016KT 16/04 A3004 RMK A01 T01600036  RH  044%=      5-min Rain = 0
KKE1 170527Z 23014KT 16/04 A3004 RMK A01 T01600036  RH  044%=      5-min Rain = 0
KKE1 170528Z 23014KT 16/04 A3004 RMK A01 T01590036  RH  044%=      5-min Rain = 0
KKE1 170529Z 23014G19KT 16/04 A3004 RMK A01 T01590036  RH  044%=      5-min Rain = 0
KKE1 170530Z 24016KT 16/04 A3004 RMK A01 T01590036  RH  044%=      5-min Rain = 0
KKE1 170531Z 23016KT 16/04 A3004 RMK A01 T01580036  RH  044%=      5-min Rain = 0
KKE1 170532Z 23015KT 16/04 A3004 RMK A01 T01580036  RH  044%=      5-min Rain = 0
KKE1 170533Z 23017KT 16/04 A3004 RMK A01 T01590036  RH  044%=      5-min Rain = 0
KKE1 170534Z 23014G19KT 16/04 A3004 RMK A01 T01590035  RH  043%=      5-min Rain = 0
KKE1 170535Z 24014KT 16/04 A3004 RMK A01 T01590035  RH  043%=      5-min Rain = 0
KKE1 170536Z 23014KT 16/04 A3004 RMK A01 T01580035  RH  044%=      5-min Rain = 0
KKE1 170537Z 24014G20KT 16/04 A3004 RMK A01 T01580035  RH  044%=      5-min Rain = 0
KKE1 170538Z 23017KT 16/04 A3004 RMK A01 T01580035  RH  044%=      5-min Rain = 0
KKE1 170539Z 23018KT 16/04 A3004 RMK A01 T01600035  RH  043%=      5-min Rain = 0
KKE1 170540Z 23016KT 16/03 A3004 RMK A01 T01620034  RH  043%=      5-min Rain = 0
KKE1 170541Z 23016KT 16/03 A3004 RMK A01 T01620034  RH  042%=      5-min Rain = 0
KKE1 170542Z 23016KT 16/03 A3004 RMK A01 T01620034  RH  042%=      5-min Rain = 0
KKE1 170543Z 23016G21KT 16/03 A3004 RMK A01 T01610034  RH  042%=      5-min Rain = 0
KKE1 170544Z 23015KT 16/03 A3004 RMK A01 T01610034  RH  042%=      5-min Rain = 0
KKE1 170545Z 23017KT 16/03 A3003 RMK A01 T01610034  RH  043%=      5-min Rain = 0
KKE1 170546Z 23018KT 16/03 A3003 RMK A01 T01610034  RH  043%=      5-min Rain = 0
KKE1 170547Z 23017KT 16/03 A3003 RMK A01 T01610034  RH  042%=      5-min Rain = 0
KKE1 170548Z 23016KT 16/03 A3004 RMK A01 T01620033  RH  042%=      5-min Rain = 0
KKE1 170549Z 23016KT 16/03 A3003 RMK A01 T01610034  RH  042%=      5-min Rain = 0
KKE1 170550Z 23017KT 16/03 A3003 RMK A01 T01600033  RH  043%=      5-min Rain = 0
KKE1 170551Z 23015KT 16/03 A3003 RMK A01 T01610034  RH  043%=      5-min Rain = 0
KKE1 170552Z 23017KT 16/03 A3003 RMK A01 T01610034  RH  043%=      5-min Rain = 0
KKE1 170553Z 23016G22KT 16/03 A3003 RMK A01 T01610034  RH  043%=      5-min Rain = 0
KKE1 170554Z 23016KT 16/03 A3003 RMK A01 T01600034  RH  043%=      5-min Rain = 0
KKE1 170555Z 23015KT 16/03 A3003 RMK A01 T01600034  RH  043%=      5-min Rain = 0
KKE1 170556Z 23019KT 16/03 A3003 RMK A01 T01600033  RH  043%=      5-min Rain = 0
KKE1 170557Z 23018G23KT 16/03 A3003 RMK A01 T01600033  RH  043%=      5-min Rain = 0
KKE1 170558Z 23017G22KT 16/03 A3003 RMK A01 T01610034  RH  042%=      5-min Rain = 0
KKE1 170559Z 23018KT 16/03 A3003 RMK A01 T01620033  RH  042%=      5-min Rain = 0

Page generated in 0.0808 seconds.